| time (UTC) | temp F | wind direction | speed knots | gust knots | rain 1hr in | rain 24hr in | rain mn in | humidity % | barometer mb |
| 20260508023917 | 60 | 360 | 6.1 | 12.2 | 0.00 | 0.00 | 0.00 | 63 | 1011.8 |
| 20260508023830 | 60 | 336 | 7.0 | 12.2 | 0.00 | 0.00 | 0.00 | 63 | 1011.7 |
| 20260508023723 | 59 | 9 | 7.0 | 12.2 | 0.00 | 0.00 | 0.00 | 64 | 1011.7 |
| 20260508023615 | 59 | 344 | 7.0 | 11.3 | 0.00 | 0.00 | 0.00 | 63 | 1011.8 |
| 20260508023527 | 59 | 355 | 7.0 | 11.3 | 0.00 | 0.00 | 0.00 | 63 | 1011.8 |
| 20260508023423 | 59 | 23 | 6.1 | 11.3 | 0.00 | 0.00 | 0.00 | 63 | 1011.8 |
| 20260508023317 | 59 | 17 | 5.2 | 11.3 | 0.00 | 0.00 | 0.00 | 63 | 1011.8 |
| 20260508023228 | 60 | 5 | 6.1 | 12.2 | 0.00 | 0.00 | 0.00 | 63 | 1011.7 |
| 20260508023121 | 59 | 319 | 6.1 | 12.2 | 0.00 | 0.00 | 0.00 | 63 | 1011.8 |
| 20260508023013 | 60 | 360 | 4.3 | 12.2 | 0.00 | 0.00 | 0.00 | 63 | 1011.8 |
| 20260508022928 | 60 | 38 | 5.2 | 12.2 | 0.00 | 0.00 | 0.00 | 63 | 1011.8 |
| 20260508022841 | 60 | 355 | 6.1 | 12.2 | 0.00 | 0.00 | 0.00 | 63 | 1011.8 |
| 20260508022712 | 60 | 10 | 6.1 | 12.2 | 0.00 | 0.00 | 0.00 | 62 | 1011.8 |
| 20260508022625 | 60 | 345 | 7.0 | 12.2 | 0.00 | 0.00 | 0.00 | 62 | 1011.8 |
| 20260508022516 | 60 | 350 | 7.0 | 12.2 | 0.00 | 0.00 | 0.00 | 62 | 1011.8 |
| 20260508022449 | 60 | 28 | 8.7 | 12.2 | 0.00 | 0.00 | 0.00 | 63 | 1011.8 |
| 20260508022324 | 60 | 336 | 7.8 | 12.2 | 0.00 | 0.00 | 0.00 | 63 | 1011.8 |
| 20260508022216 | 60 | 13 | 6.1 | 12.2 | 0.00 | 0.00 | 0.00 | 63 | 1011.7 |
| 20260508022148 | 60 | 24 | 6.1 | 12.2 | 0.00 | 0.00 | 0.00 | 63 | 1011.9 |
| 20260508022039 | 60 | 326 | 7.0 | 12.2 | 0.00 | 0.00 | 0.00 | 63 | 1011.8 |
| 20260508021930 | 60 | 22 | 7.8 | 12.2 | 0.00 | 0.00 | 0.00 | 62 | 1011.8 |
| 20260508021842 | 60 | 344 | 7.0 | 11.3 | 0.00 | 0.00 | 0.00 | 62 | 1011.9 |
| 20260508021718 | 60 | 317 | 7.8 | 11.3 | 0.00 | 0.00 | 0.00 | 62 | 1011.9 |
| 20260508021650 | 60 | 355 | 7.0 | 11.3 | 0.00 | 0.00 | 0.00 | 62 | 1011.9 |
| 20260508021523 | 60 | 350 | 6.1 | 11.3 | 0.00 | 0.00 | 0.00 | 61 | 1012.0 |
| 20260508021416 | 60 | 16 | 7.0 | 11.3 | 0.00 | 0.00 | 0.00 | 61 | 1011.9 |
| 20260508021328 | 60 | 5 | 7.0 | 11.3 | 0.00 | 0.00 | 0.00 | 61 | 1011.9 |
| 20260508021224 | 60 | 351 | 7.0 | 11.3 | 0.00 | 0.00 | 0.00 | 61 | 1011.9 |
| 20260508021117 | 60 | 344 | 7.0 | 10.4 | 0.00 | 0.00 | 0.00 | 61 | 1011.9 |
| 20260508021049 | 60 | 355 | 7.0 | 10.4 | 0.00 | 0.00 | 0.00 | 61 | 1012.0 |
| 20260508020817 | 59 | 337 | 7.0 | 10.4 | 0.00 | 0.00 | 0.00 | 61 | 1012.0 |
| 20260508020730 | 59 | 355 | 6.1 | 11.3 | 0.00 | 0.00 | 0.00 | 61 | 1012.0 |
| 20260508020627 | 60 | 355 | 6.1 | 12.2 | 0.00 | 0.00 | 0.00 | 61 | 1012.0 |
| 20260508020518 | 60 | 14 | 6.1 | 12.2 | 0.00 | 0.00 | 0.00 | 60 | 1012.0 |
| 20260508020429 | 60 | 355 | 6.1 | 13.9 | 0.00 | 0.00 | 0.00 | 60 | 1012.0 |
| 20260508020319 | 60 | 355 | 5.2 | 13.9 | 0.00 | 0.00 | 0.00 | 60 | 1012.1 |
| 20260508020251 | 60 | 350 | 6.1 | 13.9 | 0.00 | 0.00 | 0.00 | 60 | 1012.0 |
| 20260508020122 | 60 | 336 | 6.1 | 13.9 | 0.00 | 0.00 | 0.00 | 59 | 1012.0 |
| 20260508020012 | 60 | 347 | 6.1 | 13.9 | 0.00 | 0.00 | 0.00 | 59 | 1012.0 |
| 20260508015922 | 60 | 331 | 7.0 | 13.9 | 0.00 | 0.00 | 0.00 | 59 | 1012.0 |
| 20260508015817 | 60 | 360 | 7.8 | 13.9 | 0.00 | 0.00 | 0.00 | 59 | 1012.0 |
| 20260508015750 | 60 | 360 | 8.7 | 13.9 | 0.00 | 0.00 | 0.00 | 60 | 1012.0 |
| 20260508015621 | 60 | 344 | 8.7 | 13.9 | 0.00 | 0.00 | 0.00 | 59 | 1012.1 |
| 20260508015514 | 60 | 350 | 7.8 | 13.9 | 0.00 | 0.00 | 0.00 | 60 | 1012.0 |
| 20260508015447 | 60 | 323 | 7.0 | 11.3 | 0.00 | 0.00 | 0.00 | 59 | 1012.0 |
| 20260508015339 | 60 | 320 | 7.8 | 11.3 | 0.00 | 0.00 | 0.00 | 59 | 1012.0 |
| 20260508015215 | 60 | 340 | 8.7 | 11.3 | 0.00 | 0.00 | 0.00 | 59 | 1012.0 |
| 20260508015127 | 60 | 342 | 8.7 | 11.3 | 0.00 | 0.00 | 0.00 | 59 | 1012.0 |
| 20260508015019 | 60 | 344 | 7.0 | 10.4 | 0.00 | 0.00 | 0.00 | 59 | 1012.0 |
| 20260508014930 | 60 | 328 | 7.0 | 10.4 | 0.00 | 0.00 | 0.00 | 59 | 1012.0 |
| 20260508014822 | 60 | 295 | 6.1 | 11.3 | 0.00 | 0.00 | 0.00 | 59 | 1012.1 |
| 20260508014719 | 60 | 325 | 6.1 | 12.2 | 0.00 | 0.00 | 0.00 | 59 | 1012.1 |
| 20260508014612 | 60 | 335 | 6.1 | 12.2 | 0.00 | 0.00 | 0.00 | 59 | 1012.1 |
| 20260508014525 | 60 | 351 | 6.1 | 12.2 | 0.00 | 0.00 | 0.00 | 59 | 1012.1 |
| 20260508014417 | 60 | 320 | 6.1 | 12.2 | 0.00 | 0.00 | 0.00 | 59 | 1012.1 |
| 20260508014329 | 60 | 342 | 7.0 | 12.2 | 0.00 | 0.00 | 0.00 | 59 | 1012.1 |
| 20260508014241 | 60 | 5 | 7.0 | 12.2 | 0.00 | 0.00 | 0.00 | 59 | 1012.0 |
| 20260508014117 | 60 | 351 | 6.1 | 12.2 | 0.00 | 0.00 | 0.00 | 59 | 1012.0 |
| 20260508014049 | 60 | 23 | 7.0 | 12.2 | 0.00 | 0.00 | 0.00 | 59 | 1012.0 |
| 20260508013921 | 60 | 334 | 8.7 | 12.2 | 0.00 | 0.00 | 0.00 | 59 | 1012.0 |
| 20260508013832 | 60 | 355 | 7.8 | 12.2 | 0.00 | 0.00 | 0.00 | 59 | 1012.1 |
| 20260508013744 | 60 | 341 | 6.1 | 11.3 | 0.00 | 0.00 | 0.00 | 59 | 1012.0 |
| 20260508013635 | 60 | 351 | 6.1 | 11.3 | 0.00 | 0.00 | 0.00 | 59 | 1012.0 |
| 20260508013531 | 60 | 23 | 7.0 | 10.4 | 0.00 | 0.00 | 0.00 | 59 | 1012.0 |
| 20260508013443 | 60 | 355 | 7.8 | 10.4 | 0.00 | 0.00 | 0.00 | 59 | 1012.0 |
| 20260508013316 | 60 | 5 | 8.7 | 10.4 | 0.00 | 0.00 | 0.00 | 59 | 1012.1 |
| 20260508013228 | 60 | 320 | 7.8 | 10.4 | 0.00 | 0.00 | 0.00 | 59 | 1012.1 |
| 20260508013141 | 60 | 355 | 7.8 | 10.4 | 0.00 | 0.00 | 0.00 | 59 | 1012.1 |
| 20260508013053 | 60 | 348 | 7.8 | 10.4 | 0.00 | 0.00 | 0.00 | 59 | 1012.1 |
| 20260508012927 | 60 | 341 | 7.8 | 10.4 | 0.00 | 0.00 | 0.00 | 59 | 1012.1 |
| 20260508012820 | 59 | 341 | 6.1 | 10.4 | 0.00 | 0.00 | 0.00 | 59 | 1012.1 |
| 20260508012712 | 59 | 339 | 6.1 | 10.4 | 0.00 | 0.00 | 0.00 | 59 | 1012.1 |
| 20260508012625 | 59 | 328 | 6.1 | 10.4 | 0.00 | 0.00 | 0.00 | 59 | 1012.1 |
| 20260508012515 | 60 | 5 | 6.1 | 10.4 | 0.00 | 0.00 | 0.00 | 59 | 1012.2 |
| 20260508012428 | 60 | 360 | 6.1 | 10.4 | 0.00 | 0.00 | 0.00 | 59 | 1012.2 |
| 20260508012344 | 60 | 346 | 6.1 | 10.4 | 0.00 | 0.00 | 0.00 | 59 | 1012.2 |
| 20260508012215 | 60 | 327 | 7.0 | 10.4 | 0.00 | 0.00 | 0.00 | 59 | 1012.2 |
| 20260508012127 | 60 | 320 | 6.1 | 12.2 | 0.00 | 0.00 | 0.00 | 59 | 1012.2 |
| 20260508012041 | 60 | 336 | 7.0 | 12.2 | 0.00 | 0.00 | 0.00 | 59 | 1012.2 |
| 20260508011912 | 60 | 355 | 7.0 | 12.2 | 0.00 | 0.00 | 0.00 | 59 | 1012.2 |
| 20260508011829 | 60 | 343 | 6.1 | 12.2 | 0.00 | 0.00 | 0.00 | 59 | 1012.2 |
| 20260508011722 | 60 | 360 | 6.1 | 12.2 | 0.00 | 0.00 | 0.00 | 58 | 1012.2 |
| 20260508011615 | 60 | 360 | 7.0 | 12.2 | 0.00 | 0.00 | 0.00 | 58 | 1012.3 |
| 20260508011527 | 60 | 355 | 7.0 | 12.2 | 0.00 | 0.00 | 0.00 | 58 | 1012.3 |
| 20260508011419 | 60 | 348 | 7.8 | 12.2 | 0.00 | 0.00 | 0.00 | 58 | 1012.3 |
| 20260508011334 | 60 | 360 | 8.7 | 12.2 | 0.00 | 0.00 | 0.00 | 58 | 1012.3 |
| 20260508011225 | 60 | 348 | 7.8 | 12.2 | 0.00 | 0.00 | 0.00 | 58 | 1012.3 |
| 20260508011118 | 60 | 342 | 7.0 | 12.2 | 0.00 | 0.00 | 0.00 | 59 | 1012.3 |
| 20260508011052 | 60 | 316 | 7.8 | 11.3 | 0.00 | 0.00 | 0.00 | 59 | 1012.3 |
| 20260508010924 | 59 | 355 | 7.0 | 11.3 | 0.00 | 0.00 | 0.00 | 58 | 1012.3 |
| 20260508010814 | 59 | 360 | 7.0 | 11.3 | 0.00 | 0.00 | 0.00 | 59 | 1012.3 |
| 20260508010730 | 59 | 355 | 7.0 | 11.3 | 0.00 | 0.00 | 0.00 | 59 | 1012.3 |
| 20260508010623 | 59 | 334 | 7.0 | 11.3 | 0.00 | 0.00 | 0.00 | 59 | 1012.3 |
| 20260508010515 | 59 | 328 | 7.0 | 11.3 | 0.00 | 0.00 | 0.00 | 59 | 1012.4 |
| 20260508010427 | 59 | 360 | 7.0 | 11.3 | 0.00 | 0.00 | 0.00 | 59 | 1012.4 |
| 20260508010320 | 59 | 333 | 6.1 | 10.4 | 0.00 | 0.00 | 0.00 | 59 | 1012.4 |
| 20260508010216 | 59 | 345 | 7.0 | 10.4 | 0.00 | 0.00 | 0.00 | 59 | 1012.4 |
| 20260508010149 | 59 | 351 | 7.0 | 10.4 | 0.00 | 0.00 | 0.00 | 59 | 1012.4 |
| 20260508010021 | 59 | 345 | 7.0 | 10.4 | 0.00 | 0.00 | 0.00 | 59 | 1012.5 |
| 20260508005914 | 59 | 355 | 7.0 | 10.4 | 0.00 | 0.00 | 0.00 | 59 | 1012.5 |
| 20260508005826 | 59 | 360 | 6.1 | 10.4 | 0.00 | 0.00 | 0.00 | 59 | 1012.5 |
| 20260508005739 | 59 | 348 | 6.1 | 10.4 | 0.00 | 0.00 | 0.00 | 58 | 1012.5 |
| 20260508005615 | 59 | 348 | 7.0 | 10.4 | 0.00 | 0.00 | 0.00 | 58 | 1012.5 |
| 20260508005528 | 59 | 323 | 7.8 | 11.3 | 0.00 | 0.00 | 0.00 | 58 | 1012.5 |
| 20260508005419 | 59 | 344 | 7.0 | 11.3 | 0.00 | 0.00 | 0.00 | 57 | 1012.5 |
| 20260508005330 | 59 | 347 | 7.0 | 11.3 | 0.00 | 0.00 | 0.00 | 56 | 1012.6 |
| 20260508005222 | 59 | 348 | 6.1 | 11.3 | 0.00 | 0.00 | 0.00 | 56 | 1012.6 |
| 20260508005135 | 59 | 342 | 6.1 | 11.3 | 0.00 | 0.00 | 0.00 | 55 | 1012.6 |
| 20260508005031 | 59 | 332 | 6.1 | 11.3 | 0.00 | 0.00 | 0.00 | 55 | 1012.6 |
| 20260508004923 | 59 | 10 | 6.1 | 11.3 | 0.00 | 0.00 | 0.00 | 55 | 1012.6 |
| 20260508004816 | 59 | 342 | 6.1 | 11.3 | 0.00 | 0.00 | 0.00 | 54 | 1012.6 |
| 20260508004728 | 59 | 355 | 7.0 | 11.3 | 0.00 | 0.00 | 0.00 | 54 | 1012.6 |
| 20260508004621 | 59 | 342 | 7.0 | 11.3 | 0.00 | 0.00 | 0.00 | 54 | 1012.6 |
| 20260508004517 | 59 | 325 | 7.0 | 10.4 | 0.00 | 0.00 | 0.00 | 54 | 1012.6 |
| 20260508004448 | 59 | 337 | 7.0 | 10.4 | 0.00 | 0.00 | 0.00 | 54 | 1012.6 |
| 20260508004319 | 59 | 329 | 6.1 | 10.4 | 0.00 | 0.00 | 0.00 | 54 | 1012.6 |
| 20260508004252 | 59 | 330 | 5.2 | 10.4 | 0.00 | 0.00 | 0.00 | 53 | 1012.6 |
| 20260508004144 | 59 | 340 | 6.1 | 10.4 | 0.00 | 0.00 | 0.00 | 53 | 1012.6 |
| 20260508004015 | 59 | 351 | 7.0 | 10.4 | 0.00 | 0.00 | 0.00 | 53 | 1012.6 |
| 20260508003948 | 59 | 351 | 7.8 | 10.4 | 0.00 | 0.00 | 0.00 | 54 | 1012.6 |
| 20260508003823 | 59 | 350 | 6.1 | 9.6 | 0.00 | 0.00 | 0.00 | 54 | 1012.7 |
| 20260508003716 | 59 | 342 | 5.2 | 8.7 | 0.00 | 0.00 | 0.00 | 54 | 1012.7 |
| 20260508003627 | 59 | 355 | 5.2 | 8.7 | 0.00 | 0.00 | 0.00 | 54 | 1012.7 |
| 20260508003520 | 59 | 338 | 5.2 | 8.7 | 0.00 | 0.00 | 0.00 | 54 | 1012.8 |
| 20260508003431 | 59 | 342 | 5.2 | 8.7 | 0.00 | 0.00 | 0.00 | 53 | 1012.7 |
| 20260508003348 | 59 | 348 | 5.2 | 8.7 | 0.00 | 0.00 | 0.00 | 53 | 1012.8 |
| 20260508003239 | 59 | 338 | 5.2 | 8.7 | 0.00 | 0.00 | 0.00 | 54 | 1012.8 |
| 20260508003150 | 59 | 348 | 6.1 | 8.7 | 0.00 | 0.00 | 0.00 | 54 | 1012.7 |
| 20260508003022 | 58 | 339 | 6.1 | 8.7 | 0.00 | 0.00 | 0.00 | 54 | 1012.8 |
| 20260508002914 | 58 | 355 | 5.2 | 8.7 | 0.00 | 0.00 | 0.00 | 54 | 1012.8 |
| 20260508002825 | 58 | 355 | 5.2 | 8.7 | 0.00 | 0.00 | 0.00 | 55 | 1012.8 |
| 20260508002721 | 58 | 344 | 4.3 | 8.7 | 0.00 | 0.00 | 0.00 | 55 | 1012.8 |
| 20260508002614 | 58 | 325 | 4.3 | 8.7 | 0.00 | 0.00 | 0.00 | 56 | 1012.8 |
| 20260508002527 | 58 | 324 | 4.3 | 9.6 | 0.00 | 0.00 | 0.00 | 56 | 1012.8 |
| 20260508002418 | 59 | 324 | 5.2 | 9.6 | 0.00 | 0.00 | 0.00 | 56 | 1012.8 |
| 20260508002330 | 59 | 322 | 5.2 | 9.6 | 0.00 | 0.00 | 0.00 | 56 | 1012.8 |
| 20260508002222 | 59 | 317 | 5.2 | 9.6 | 0.00 | 0.00 | 0.00 | 56 | 1012.8 |
| 20260508002118 | 59 | 329 | 5.2 | 9.6 | 0.00 | 0.00 | 0.00 | 56 | 1012.8 |
| 20260508002032 | 59 | 331 | 5.2 | 9.6 | 0.00 | 0.00 | 0.00 | 56 | 1012.8 |
| 20260508001943 | 59 | 337 | 6.1 | 9.6 | 0.00 | 0.00 | 0.00 | 55 | 1012.8 |
| 20260508001815 | 58 | 322 | 6.1 | 9.6 | 0.00 | 0.00 | 0.00 | 56 | 1012.8 |
| 20260508001728 | 58 | 339 | 6.1 | 9.6 | 0.00 | 0.00 | 0.00 | 56 | 1012.8 |
| 20260508001645 | 58 | 321 | 6.1 | 9.6 | 0.00 | 0.00 | 0.00 | 56 | 1012.7 |
| 20260508001516 | 58 | 323 | 6.1 | 9.6 | 0.00 | 0.00 | 0.00 | 56 | 1012.8 |
| 20260508001429 | 58 | 321 | 6.1 | 9.6 | 0.00 | 0.00 | 0.00 | 56 | 1012.8 |
| 20260508001322 | 58 | 311 | 6.1 | 9.6 | 0.00 | 0.00 | 0.00 | 56 | 1012.8 |
| 20260508001214 | 58 | 321 | 7.0 | 9.6 | 0.00 | 0.00 | 0.00 | 56 | 1012.8 |
| 20260508001130 | 58 | 330 | 7.0 | 8.7 | 0.00 | 0.00 | 0.00 | 56 | 1012.8 |
| 20260508001023 | 57 | 327 | 6.1 | 8.7 | 0.00 | 0.00 | 0.00 | 56 | 1012.8 |
| 20260508000915 | 57 | 328 | 6.1 | 8.7 | 0.00 | 0.00 | 0.00 | 56 | 1012.8 |
| 20260508000827 | 57 | 330 | 5.2 | 8.7 | 0.00 | 0.00 | 0.00 | 57 | 1012.8 |
| 20260508000720 | 57 | 338 | 6.1 | 8.7 | 0.00 | 0.00 | 0.00 | 57 | 1012.8 |
| 20260508000616 | 57 | 323 | 6.1 | 7.8 | 0.00 | 0.00 | 0.00 | 57 | 1012.8 |
| 20260508000530 | 57 | 327 | 5.2 | 7.8 | 0.00 | 0.00 | 0.00 | 57 | 1012.9 |
| 20260508000419 | 57 | 327 | 5.2 | 7.8 | 0.00 | 0.00 | 0.00 | 57 | 1012.9 |
| 20260508000312 | 57 | 321 | 5.2 | 7.0 | 0.00 | 0.00 | 0.00 | 57 | 1012.9 |
| 20260508000221 | 57 | 321 | 5.2 | 7.0 | 0.00 | 0.00 | 0.00 | 57 | 1012.9 |
| 20260508000118 | 57 | 319 | 5.2 | 7.0 | 0.00 | 0.00 | 0.00 | 57 | 1013.0 |
| 20260508000030 | 57 | 318 | 5.2 | 7.0 | 0.00 | 0.00 | 0.00 | 57 | 1013.0 |
| 20260507235942 | 57 | 310 | 5.2 | 7.0 | 0.00 | 0.00 | 0.00 | 57 | 1013.0 |
| 20260507235814 | 57 | 317 | 5.2 | 7.0 | 0.00 | 0.00 | 0.00 | 56 | 1013.0 |
| 20260507235746 | 57 | 317 | 5.2 | 7.8 | 0.00 | 0.00 | 0.00 | 56 | 1013.0 |
| 20260507235618 | 57 | 317 | 4.3 | 7.8 | 0.00 | 0.00 | 0.00 | 55 | 1013.0 |
| 20260507235513 | 57 | 323 | 4.3 | 7.8 | 0.00 | 0.00 | 0.00 | 55 | 1013.0 |
| 20260507235425 | 57 | 325 | 4.3 | 7.8 | 0.00 | 0.00 | 0.00 | 55 | 1013.0 |
| 20260507235318 | 57 | 323 | 4.3 | 8.7 | 0.00 | 0.00 | 0.00 | 55 | 1013.0 |
| 20260507235229 | 57 | 328 | 4.3 | 8.7 | 0.00 | 0.00 | 0.00 | 55 | 1013.0 |
| 20260507235121 | 57 | 333 | 4.3 | 8.7 | 0.00 | 0.00 | 0.00 | 55 | 1013.0 |
| 20260507235033 | 57 | 323 | 5.2 | 8.7 | 0.00 | 0.00 | 0.00 | 55 | 1013.0 |
| 20260507234929 | 57 | 325 | 5.2 | 8.7 | 0.00 | 0.00 | 0.00 | 54 | 1013.0 |
| 20260507234822 | 57 | 310 | 5.2 | 8.7 | 0.00 | 0.00 | 0.00 | 55 | 1013.0 |
| 20260507234713 | 57 | 310 | 6.1 | 8.7 | 0.00 | 0.00 | 0.00 | 54 | 1013.0 |
| 20260507234626 | 57 | 314 | 6.1 | 8.7 | 0.00 | 0.00 | 0.00 | 54 | 1013.0 |
| 20260507234519 | 58 | 327 | 7.0 | 8.7 | 0.00 | 0.00 | 0.00 | 54 | 1013.0 |
| 20260507234415 | 57 | 315 | 6.1 | 8.7 | 0.00 | 0.00 | 0.00 | 54 | 1013.0 |
| 20260507234327 | 58 | 322 | 6.1 | 8.7 | 0.00 | 0.00 | 0.00 | 54 | 1013.0 |
| 20260507234239 | 58 | 305 | 6.1 | 9.6 | 0.00 | 0.00 | 0.00 | 54 | 1013.0 |
| 20260507234129 | 58 | 321 | 6.1 | 9.6 | 0.00 | 0.00 | 0.00 | 54 | 1013.1 |
| 20260507234042 | 58 | 317 | 6.1 | 9.6 | 0.00 | 0.00 | 0.00 | 54 | 1013.1 |
| 20260507233913 | 58 | 325 | 6.1 | 9.6 | 0.00 | 0.00 | 0.00 | 54 | 1013.1 |
| 20260507233825 | 58 | 317 | 6.1 | 9.6 | 0.00 | 0.00 | 0.00 | 54 | 1013.1 |
| 20260507233720 | 57 | 312 | 6.1 | 9.6 | 0.00 | 0.00 | 0.00 | 55 | 1013.0 |
| 20260507233612 | 57 | 318 | 7.0 | 9.6 | 0.00 | 0.00 | 0.00 | 55 | 1013.0 |
| 20260507233524 | 57 | 315 | 7.0 | 9.6 | 0.00 | 0.00 | 0.00 | 55 | 1013.0 |
| 20260507233417 | 57 | 317 | 7.0 | 9.6 | 0.00 | 0.00 | 0.00 | 55 | 1013.1 |
| 20260507233329 | 57 | 315 | 7.0 | 9.6 | 0.00 | 0.00 | 0.00 | 55 | 1013.0 |
| 20260507233217 | 57 | 316 | 7.0 | 9.6 | 0.00 | 0.00 | 0.00 | 55 | 1013.1 |
| 20260507233114 | 57 | 306 | 7.8 | 8.7 | 0.00 | 0.00 | 0.00 | 55 | 1013.1 |
| 20260507233025 | 57 | 320 | 7.0 | 8.7 | 0.00 | 0.00 | 0.00 | 55 | 1013.1 |
| 20260507232917 | 57 | 311 | 7.0 | 8.7 | 0.00 | 0.00 | 0.00 | 55 | 1013.1 |
| 20260507232830 | 57 | 317 | 7.0 | 8.7 | 0.00 | 0.00 | 0.00 | 55 | 1013.1 |
| 20260507232723 | 57 | 320 | 7.0 | 8.7 | 0.00 | 0.00 | 0.00 | 56 | 1013.1 |
| 20260507232615 | 57 | 315 | 6.1 | 8.7 | 0.00 | 0.00 | 0.00 | 55 | 1013.2 |
| 20260507232541 | 57 | 316 | 6.1 | 7.8 | 0.00 | 0.00 | 0.00 | 56 | 1013.2 |
| 20260507232428 | 57 | 317 | 6.1 | 7.8 | 0.00 | 0.00 | 0.00 | 56 | 1013.2 |
| 20260507232317 | 57 | 319 | 6.1 | 7.8 | 0.00 | 0.00 | 0.00 | 55 | 1013.2 |
| 20260507232217 | 57 | 315 | 6.1 | 7.8 | 0.00 | 0.00 | 0.00 | 56 | 1013.2 |
| 20260507232130 | 57 | 319 | 7.0 | 7.8 | 0.00 | 0.00 | 0.00 | 56 | 1013.2 |
| 20260507232021 | 57 | 313 | 6.1 | 7.8 | 0.00 | 0.00 | 0.00 | 56 | 1013.2 |
| 20260507231918 | 57 | 319 | 6.1 | 7.8 | 0.00 | 0.00 | 0.00 | 56 | 1013.1 |
| 20260507231830 | 56 | 320 | 5.2 | 7.8 | 0.00 | 0.00 | 0.00 | 56 | 1013.2 |
| 20260507231723 | 56 | 318 | 5.2 | 7.8 | 0.00 | 0.00 | 0.00 | 56 | 1013.2 |
| 20260507231615 | 56 | 312 | 5.2 | 7.8 | 0.00 | 0.00 | 0.00 | 56 | 1013.1 |
| 20260507231518 | 56 | 306 | 6.1 | 7.8 | 0.00 | 0.00 | 0.00 | 55 | 1013.2 |
| 20260507231429 | 56 | 311 | 6.1 | 7.8 | 0.00 | 0.00 | 0.00 | 56 | 1013.2 |
| 20260507231339 | 56 | 312 | 6.1 | 7.8 | 0.00 | 0.00 | 0.00 | 56 | 1013.2 |
| 20260507231227 | 56 | 308 | 6.1 | 7.8 | 0.00 | 0.00 | 0.00 | 56 | 1013.2 |
| 20260507231120 | 56 | 308 | 6.1 | 7.8 | 0.00 | 0.00 | 0.00 | 56 | 1013.2 |
| 20260507231032 | 56 | 306 | 5.2 | 7.8 | 0.00 | 0.00 | 0.00 | 56 | 1013.2 |
| 20260507230924 | 56 | 313 | 5.2 | 7.8 | 0.00 | 0.00 | 0.00 | 56 | 1013.3 |
| 20260507230820 | 56 | 315 | 5.2 | 7.8 | 0.00 | 0.00 | 0.00 | 56 | 1013.3 |
| 20260507230727 | 56 | 313 | 5.2 | 7.8 | 0.00 | 0.00 | 0.00 | 56 | 1013.3 |
| 20260507230620 | 56 | 310 | 5.2 | 7.8 | 0.00 | 0.00 | 0.00 | 56 | 1013.2 |
| 20260507230551 | 56 | 309 | 5.2 | 7.8 | 0.00 | 0.00 | 0.00 | 57 | 1013.2 |
| 20260507230413 | 56 | 307 | 6.1 | 7.8 | 0.00 | 0.00 | 0.00 | 57 | 1013.2 |
| 20260507230330 | 56 | 311 | 6.1 | 7.8 | 0.00 | 0.00 | 0.00 | 57 | 1013.2 |
| 20260507230237 | 56 | 310 | 7.0 | 7.8 | 0.00 | 0.00 | 0.00 | 58 | 1013.3 |
| 20260507230149 | 56 | 309 | 7.0 | 7.8 | 0.00 | 0.00 | 0.00 | 59 | 1013.3 |
| 20260507230040 | 56 | 309 | 6.1 | 7.8 | 0.00 | 0.00 | 0.00 | 60 | 1013.3 |
| 20260507225920 | 56 | 316 | 7.0 | 7.8 | 0.00 | 0.00 | 0.00 | 59 | 1013.3 |
| 20260507225831 | 56 | 308 | 7.0 | 7.8 | 0.00 | 0.00 | 0.00 | 59 | 1013.3 |
| 20260507225723 | 56 | 311 | 6.1 | 7.8 | 0.00 | 0.00 | 0.00 | 59 | 1013.3 |
| 20260507225616 | 56 | 306 | 6.1 | 7.8 | 0.00 | 0.00 | 0.00 | 59 | 1013.3 |
| 20260507225512 | 56 | 313 | 6.1 | 7.8 | 0.00 | 0.00 | 0.00 | 59 | 1013.3 |
| 20260507225424 | 56 | 309 | 6.1 | 7.8 | 0.00 | 0.00 | 0.00 | 59 | 1013.3 |
| 20260507225317 | 56 | 307 | 6.1 | 7.8 | 0.00 | 0.00 | 0.00 | 59 | 1013.3 |
| 20260507225250 | 56 | 306 | 6.1 | 7.8 | 0.00 | 0.00 | 0.00 | 59 | 1013.3 |
| 20260507225122 | 56 | 312 | 6.1 | 7.8 | 0.00 | 0.00 | 0.00 | 59 | 1013.4 |
| 20260507225013 | 56 | 314 | 5.2 | 7.0 | 0.00 | 0.00 | 0.00 | 59 | 1013.4 |
| 20260507224930 | 56 | 321 | 5.2 | 7.0 | 0.00 | 0.00 | 0.00 | 59 | 1013.4 |
| 20260507224823 | 56 | 315 | 4.3 | 7.0 | 0.00 | 0.00 | 0.00 | 59 | 1013.4 |
| 20260507224715 | 55 | 320 | 4.3 | 7.0 | 0.00 | 0.00 | 0.00 | 59 | 1013.4 |
| 20260507224625 | 55 | 328 | 4.3 | 7.0 | 0.00 | 0.00 | 0.00 | 59 | 1013.4 |
| 20260507224518 | 55 | 317 | 4.3 | 5.2 | 0.00 | 0.00 | 0.00 | 59 | 1013.4 |
| 20260507224435 | 55 | 318 | 2.6 | 6.1 | 0.00 | 0.00 | 0.00 | 60 | 1013.4 |
| 20260507224325 | 55 | 306 | 0.9 | 7.0 | 0.00 | 0.00 | 0.00 | 60 | 1013.4 |
| 20260507224217 | 55 | 302 | 0.9 | 7.8 | 0.00 | 0.00 | 0.00 | 60 | 1013.4 |
| 20260507224130 | 55 | 302 | 1.7 | 7.8 | 0.00 | 0.00 | 0.00 | 59 | 1013.4 |
| 20260507224023 | 56 | 302 | 4.3 | 7.8 | 0.00 | 0.00 | 0.00 | 58 | 1013.4 |
| 20260507223919 | 56 | 304 | 5.2 | 7.8 | 0.00 | 0.00 | 0.00 | 57 | 1013.4 |
| 20260507223812 | 56 | 304 | 5.2 | 7.8 | 0.00 | 0.00 | 0.00 | 57 | 1013.3 |
| 20260507223723 | 56 | 304 | 5.2 | 7.8 | 0.00 | 0.00 | 0.00 | 57 | 1013.3 |
| 20260507223615 | 56 | 304 | 5.2 | 7.8 | 0.00 | 0.00 | 0.00 | 56 | 1013.3 |
| 20260507223528 | 56 | 304 | 5.2 | 7.8 | 0.00 | 0.00 | 0.00 | 57 | 1013.3 |
| 20260507223425 | 56 | 304 | 6.1 | 7.8 | 0.00 | 0.00 | 0.00 | 57 | 1013.3 |
| 20260507223337 | 56 | 305 | 7.0 | 7.8 | 0.00 | 0.00 | 0.00 | 57 | 1013.2 |
| 20260507223229 | 56 | 303 | 7.0 | 7.8 | 0.00 | 0.00 | 0.00 | 58 | 1013.2 |
| 20260507223120 | 56 | 308 | 7.0 | 7.8 | 0.00 | 0.00 | 0.00 | 57 | 1013.2 |
| 20260507223012 | 56 | 310 | 7.0 | 7.8 | 0.00 | 0.00 | 0.00 | 58 | 1013.2 |
| 20260507222925 | 56 | 304 | 7.0 | 7.8 | 0.00 | 0.00 | 0.00 | 58 | 1013.2 |
| 20260507222842 | 56 | 304 | 6.1 | 7.8 | 0.00 | 0.00 | 0.00 | 58 | 1013.2 |
| 20260507222713 | 56 | 306 | 6.1 | 7.8 | 0.00 | 0.00 | 0.00 | 58 | 1013.1 |
| 20260507222626 | 56 | 313 | 6.1 | 7.8 | 0.00 | 0.00 | 0.00 | 57 | 1013.1 |
| 20260507222519 | 56 | 309 | 5.2 | 7.0 | 0.00 | 0.00 | 0.00 | 57 | 1013.2 |
| 20260507222412 | 56 | 313 | 5.2 | 7.0 | 0.00 | 0.00 | 0.00 | 57 | 1013.1 |
| 20260507222329 | 56 | 310 | 5.2 | 7.0 | 0.00 | 0.00 | 0.00 | 57 | 1013.1 |
| 20260507222220 | 56 | 319 | 4.3 | 5.2 | 0.00 | 0.00 | 0.00 | 56 | 1013.1 |
| 20260507222113 | 56 | 318 | 4.3 | 5.2 | 0.00 | 0.00 | 0.00 | 57 | 1013.2 |
| 20260507222026 | 56 | 314 | 4.3 | 5.2 | 0.00 | 0.00 | 0.00 | 57 | 1013.2 |
| 20260507221938 | 55 | 318 | 4.3 | 5.2 | 0.00 | 0.00 | 0.00 | 58 | 1013.2 |
| 20260507221813 | 55 | 317 | 4.3 | 5.2 | 0.00 | 0.00 | 0.00 | 59 | 1013.1 |
| 20260507221726 | 55 | 318 | 4.3 | 5.2 | 0.00 | 0.00 | 0.00 | 59 | 1013.1 |
| 20260507221639 | 55 | 311 | 4.3 | 5.2 | 0.00 | 0.00 | 0.00 | 60 | 1013.1 |
| 20260507221551 | 54 | 306 | 4.3 | 6.1 | 0.00 | 0.00 | 0.00 | 60 | 1013.1 |
| 20260507221423 | 54 | 316 | 4.3 | 5.2 | 0.00 | 0.00 | 0.00 | 60 | 1013.1 |
| 20260507221336 | 54 | 315 | 4.3 | 7.0 | 0.00 | 0.00 | 0.00 | 61 | 1013.1 |
| 20260507221248 | 54 | 302 | 3.5 | 7.0 | 0.00 | 0.00 | 0.00 | 60 | 1013.2 |
| 20260507221144 | 54 | 302 | 3.5 | 7.0 | 0.00 | 0.00 | 0.00 | 60 | 1013.2 |
| 20260507221014 | 55 | 301 | 3.5 | 7.0 | 0.00 | 0.00 | 0.00 | 61 | 1013.2 |
| 20260507220814 | 55 | 301 | 4.3 | 7.8 | 0.00 | 0.00 | 0.00 | 59 | 1013.2 |
| 20260507220726 | 55 | 298 | 4.3 | 7.8 | 0.00 | 0.00 | 0.00 | 59 | 1013.2 |
| 20260507220638 | 55 | 298 | 4.3 | 7.8 | 0.00 | 0.00 | 0.00 | 58 | 1013.1 |
| 20260507220532 | 55 | 298 | 5.2 | 8.7 | 0.00 | 0.00 | 0.00 | 58 | 1013.1 |
| 20260507220444 | 55 | 300 | 6.1 | 8.7 | 0.00 | 0.00 | 0.00 | 59 | 1013.1 |
| 20260507220316 | 55 | 299 | 5.2 | 8.7 | 0.00 | 0.00 | 0.00 | 59 | 1013.1 |
| 20260507220227 | 55 | 299 | 5.2 | 8.7 | 0.00 | 0.00 | 0.00 | 59 | 1013.1 |
| 20260507220117 | 55 | 299 | 6.1 | 8.7 | 0.00 | 0.00 | 0.00 | 59 | 1013.1 |
| 20260507220029 | 55 | 302 | 6.1 | 8.7 | 0.00 | 0.00 | 0.00 | 59 | 1013.0 |
| 20260507215926 | 55 | 304 | 6.1 | 8.7 | 0.00 | 0.00 | 0.00 | 59 | 1013.0 |
| 20260507215837 | 55 | 303 | 7.0 | 8.7 | 0.00 | 0.00 | 0.00 | 59 | 1013.0 |
| 20260507215729 | 55 | 304 | 7.0 | 8.7 | 0.00 | 0.00 | 0.00 | 59 | 1013.0 |
| 20260507215620 | 55 | 300 | 7.0 | 8.7 | 0.00 | 0.00 | 0.00 | 59 | 1013.0 |
| 20260507215512 | 55 | 304 | 7.0 | 7.8 | 0.00 | 0.00 | 0.00 | 60 | 1013.0 |
| 20260507215425 | 55 | 302 | 7.0 | 7.8 | 0.00 | 0.00 | 0.00 | 59 | 1013.0 |
| 20260507215318 | 55 | 300 | 7.0 | 7.8 | 0.00 | 0.00 | 0.00 | 60 | 1013.0 |
| 20260507215230 | 56 | 306 | 7.0 | 7.8 | 0.00 | 0.00 | 0.00 | 59 | 1013.0 |
| 20260507215123 | 56 | 295 | 7.0 | 7.8 | 0.00 | 0.00 | 0.00 | 59 | 1013.0 |
| 20260507215016 | 56 | 294 | 7.0 | 7.8 | 0.00 | 0.00 | 0.00 | 59 | 1013.0 |
| 20260507214927 | 56 | 298 | 7.0 | 7.8 | 0.00 | 0.00 | 0.00 | 59 | 1013.0 |
| 20260507214823 | 56 | 299 | 7.0 | 7.8 | 0.00 | 0.00 | 0.00 | 59 | 1013.0 |
| 20260507214715 | 56 | 299 | 7.0 | 7.8 | 0.00 | 0.00 | 0.00 | 59 | 1013.0 |
| 20260507214648 | 55 | 298 | 7.0 | 7.8 | 0.00 | 0.00 | 0.00 | 60 | 1013.0 |
| 20260507214519 | 55 | 299 | 7.0 | 7.8 | 0.00 | 0.00 | 0.00 | 60 | 1013.0 |
| 20260507214412 | 55 | 300 | 7.0 | 7.8 | 0.00 | 0.00 | 0.00 | 61 | 1013.0 |
| 20260507214329 | 55 | 301 | 7.0 | 7.8 | 0.00 | 0.00 | 0.00 | 61 | 1013.0 |
| 20260507214222 | 55 | 302 | 7.0 | 7.8 | 0.00 | 0.00 | 0.00 | 62 | 1013.0 |
| 20260507214134 | 55 | 298 | 7.0 | 7.8 | 0.00 | 0.00 | 0.00 | 62 | 1013.1 |
| 20260507214025 | 55 | 301 | 7.0 | 7.8 | 0.00 | 0.00 | 0.00 | 62 | 1013.1 |
| 20260507213915 | 55 | 300 | 7.0 | 7.8 | 0.00 | 0.00 | 0.00 | 62 | 1013.1 |
| 20260507213827 | 55 | 302 | 7.0 | 8.7 | 0.00 | 0.00 | 0.00 | 62 | 1013.1 |
| 20260507213744 | 55 | 304 | 7.0 | 8.7 | 0.00 | 0.00 | 0.00 | 62 | 1013.0 |
| 20260507213615 | 55 | 300 | 7.0 | 8.7 | 0.00 | 0.00 | 0.00 | 62 | 1013.0 |
| 20260507213549 | 55 | 306 | 7.0 | 8.7 | 0.00 | 0.00 | 0.00 | 62 | 1013.0 |
| 20260507213420 | 55 | 304 | 7.0 | 8.7 | 0.00 | 0.00 | 0.00 | 62 | 1013.0 |
| 20260507213313 | 55 | 303 | 7.0 | 8.7 | 0.00 | 0.00 | 0.00 | 62 | 1013.0 |
| 20260507213224 | 55 | 312 | 7.0 | 8.7 | 0.00 | 0.00 | 0.00 | 62 | 1013.0 |
| 20260507213140 | 55 | 307 | 7.0 | 8.7 | 0.00 | 0.00 | 0.00 | 62 | 1013.0 |
| 20260507213012 | 55 | 304 | 7.0 | 8.7 | 0.00 | 0.00 | 0.00 | 62 | 1013.1 |
| 20260507212924 | 55 | 304 | 7.0 | 8.7 | 0.00 | 0.00 | 0.00 | 62 | 1013.1 |
| 20260507212816 | 55 | 306 | 7.0 | 8.7 | 0.00 | 0.00 | 0.00 | 62 | 1013.1 |
| 20260507212749 | 55 | 304 | 7.0 | 8.7 | 0.00 | 0.00 | 0.00 | 63 | 1013.1 |
| 20260507212624 | 55 | 305 | 7.0 | 8.7 | 0.00 | 0.00 | 0.00 | 63 | 1013.1 |
| 20260507212515 | 55 | 303 | 7.0 | 8.7 | 0.00 | 0.00 | 0.00 | 63 | 1013.1 |
| 20260507212427 | 55 | 307 | 7.0 | 8.7 | 0.00 | 0.00 | 0.00 | 63 | 1013.1 |
| 20260507212319 | 55 | 308 | 7.0 | 8.7 | 0.00 | 0.00 | 0.00 | 63 | 1013.1 |
| 20260507212252 | 55 | 302 | 7.0 | 8.7 | 0.00 | 0.00 | 0.00 | 64 | 1013.1 |
| 20260507212123 | 55 | 307 | 7.0 | 8.7 | 0.00 | 0.00 | 0.00 | 63 | 1013.1 |
| 20260507212020 | 55 | 301 | 7.0 | 8.7 | 0.00 | 0.00 | 0.00 | 64 | 1013.0 |
| 20260507211931 | 55 | 299 | 7.0 | 8.7 | 0.00 | 0.00 | 0.00 | 64 | 1013.0 |
| 20260507211843 | 55 | 302 | 7.0 | 8.7 | 0.00 | 0.00 | 0.00 | 64 | 1013.0 |
| 20260507211715 | 55 | 301 | 7.0 | 8.7 | 0.00 | 0.00 | 0.00 | 64 | 1013.1 |
| 20260507211628 | 55 | 300 | 7.0 | 8.7 | 0.00 | 0.00 | 0.00 | 64 | 1013.1 |
| 20260507211525 | 55 | 304 | 7.0 | 8.7 | 0.00 | 0.00 | 0.00 | 64 | 1013.1 |
| 20260507211415 | 55 | 307 | 7.0 | 8.7 | 0.00 | 0.00 | 0.00 | 64 | 1013.1 |
| 20260507211328 | 55 | 306 | 7.0 | 8.7 | 0.00 | 0.00 | 0.00 | 64 | 1013.1 |
| 20260507211221 | 55 | 304 | 7.0 | 8.7 | 0.00 | 0.00 | 0.00 | 64 | 1013.1 |
| 20260507211114 | 55 | 307 | 7.8 | 8.7 | 0.00 | 0.00 | 0.00 | 64 | 1013.2 |
| 20260507211025 | 55 | 304 | 7.8 | 8.7 | 0.00 | 0.00 | 0.00 | 64 | 1013.2 |
| 20260507210921 | 55 | 304 | 7.8 | 8.7 | 0.00 | 0.00 | 0.00 | 64 | 1013.2 |
| 20260507210814 | 55 | 306 | 7.0 | 8.7 | 0.00 | 0.00 | 0.00 | 64 | 1013.2 |
| 20260507210726 | 55 | 303 | 7.0 | 8.7 | 0.00 | 0.00 | 0.00 | 64 | 1013.2 |
| 20260507210619 | 55 | 298 | 7.0 | 8.7 | 0.00 | 0.00 | 0.00 | 64 | 1013.3 |
| 20260507210530 | 55 | 316 | 7.0 | 8.7 | 0.00 | 0.00 | 0.00 | 65 | 1013.3 |
| 20260507210426 | 55 | 313 | 7.8 | 8.7 | 0.00 | 0.00 | 0.00 | 64 | 1013.3 |
| 20260507210339 | 55 | 308 | 7.0 | 8.7 | 0.00 | 0.00 | 0.00 | 64 | 1013.3 |
| 20260507210229 | 55 | 306 | 7.0 | 8.7 | 0.00 | 0.00 | 0.00 | 64 | 1013.3 |
| 20260507210121 | 55 | 302 | 7.8 | 8.7 | 0.00 | 0.00 | 0.00 | 64 | 1013.3 |
| 20260507210012 | 55 | 305 | 7.0 | 8.7 | 0.00 | 0.00 | 0.00 | 64 | 1013.3 |
| 20260507205925 | 55 | 309 | 7.0 | 8.7 | 0.00 | 0.00 | 0.00 | 64 | 1013.3 |
| 20260507205821 | 55 | 302 | 7.0 | 8.7 | 0.00 | 0.00 | 0.00 | 64 | 1013.3 |
| 20260507205714 | 55 | 304 | 7.0 | 8.7 | 0.00 | 0.00 | 0.00 | 63 | 1013.3 |
| 20260507205627 | 55 | 303 | 7.8 | 8.7 | 0.00 | 0.00 | 0.00 | 63 | 1013.3 |
| 20260507205520 | 55 | 306 | 7.8 | 8.7 | 0.00 | 0.00 | 0.00 | 63 | 1013.3 |
| 20260507205412 | 55 | 303 | 7.8 | 8.7 | 0.00 | 0.00 | 0.00 | 62 | 1013.2 |
| 20260507205330 | 55 | 302 | 7.8 | 8.7 | 0.00 | 0.00 | 0.00 | 62 | 1013.2 |
| 20260507205217 | 55 | 300 | 7.8 | 8.7 | 0.00 | 0.00 | 0.00 | 61 | 1013.2 |
| 20260507205127 | 55 | 304 | 7.8 | 8.7 | 0.00 | 0.00 | 0.00 | 62 | 1013.2 |
| 20260507205040 | 55 | 311 | 7.0 | 8.7 | 0.00 | 0.00 | 0.00 | 62 | 1013.2 |
| 20260507204951 | 55 | 301 | 7.0 | 8.7 | 0.00 | 0.00 | 0.00 | 61 | 1013.2 |
| 20260507204823 | 55 | 307 | 6.1 | 7.8 | 0.00 | 0.00 | 0.00 | 62 | 1013.2 |
| 20260507204735 | 55 | 302 | 6.1 | 7.8 | 0.00 | 0.00 | 0.00 | 62 | 1013.2 |
| 20260507204650 | 55 | 314 | 5.2 | 7.8 | 0.00 | 0.00 | 0.00 | 62 | 1013.2 |
| 20260507204522 | 55 | 302 | 5.2 | 7.8 | 0.00 | 0.00 | 0.00 | 62 | 1013.2 |
| 20260507204415 | 55 | 313 | 5.2 | 7.8 | 0.00 | 0.00 | 0.00 | 62 | 1013.2 |
| 20260507204327 | 55 | 316 | 5.2 | 7.8 | 0.00 | 0.00 | 0.00 | 62 | 1013.2 |
| 20260507204220 | 55 | 317 | 5.2 | 7.8 | 0.00 | 0.00 | 0.00 | 63 | 1013.2 |
| 20260507204136 | 55 | 315 | 5.2 | 7.8 | 0.00 | 0.00 | 0.00 | 64 | 1013.1 |
| 20260507204048 | 54 | 315 | 6.1 | 7.8 | 0.00 | 0.00 | 0.00 | 65 | 1013.1 |
| 20260507203920 | 54 | 313 | 6.1 | 7.8 | 0.00 | 0.00 | 0.00 | 66 | 1013.1 |
| 20260507203830 | 54 | 309 | 6.1 | 7.8 | 0.00 | 0.00 | 0.00 | 67 | 1013.1 |
| 20260507203722 | 54 | 308 | 7.0 | 8.7 | 0.00 | 0.00 | 0.00 | 67 | 1013.1 |
| 20260507203636 | 54 | 304 | 7.0 | 8.7 | 0.00 | 0.00 | 0.00 | 67 | 1013.1 |
| 20260507203528 | 54 | 305 | 7.0 | 8.7 | 0.00 | 0.00 | 0.00 | 67 | 1013.1 |
| 20260507203424 | 54 | 304 | 7.0 | 8.7 | 0.00 | 0.00 | 0.00 | 67 | 1013.1 |
| 20260507203317 | 54 | 302 | 7.0 | 8.7 | 0.00 | 0.00 | 0.00 | 67 | 1013.1 |
| 20260507203228 | 54 | 304 | 7.0 | 8.7 | 0.00 | 0.00 | 0.00 | 67 | 1013.1 |
| 20260507203121 | 54 | 296 | 7.0 | 8.7 | 0.00 | 0.00 | 0.00 | 67 | 1013.1 |
| 20260507203017 | 55 | 304 | 7.0 | 8.7 | 0.00 | 0.00 | 0.00 | 67 | 1013.1 |
| 20260507202950 | 55 | 300 | 7.0 | 8.7 | 0.00 | 0.00 | 0.00 | 67 | 1013.1 |
| 20260507202841 | 55 | 299 | 7.0 | 8.7 | 0.00 | 0.00 | 0.00 | 68 | 1013.2 |
| 20260507202751 | 55 | 311 | 7.8 | 8.7 | 0.00 | 0.00 | 0.00 | 68 | 1013.1 |
| 20260507202642 | 55 | 306 | 7.0 | 7.8 | 0.00 | 0.00 | 0.00 | 67 | 1013.2 |
| 20260507202534 | 55 | 308 | 7.0 | 7.8 | 0.00 | 0.00 | 0.00 | 67 | 1013.2 |
| 20260507202425 | 55 | 309 | 6.1 | 7.8 | 0.00 | 0.00 | 0.00 | 67 | 1013.2 |
| 20260507202337 | 55 | 308 | 7.0 | 7.8 | 0.00 | 0.00 | 0.00 | 67 | 1013.2 |
| 20260507202212 | 55 | 309 | 6.1 | 7.8 | 0.00 | 0.00 | 0.00 | 67 | 1013.2 |
| 20260507202125 | 55 | 309 | 6.1 | 7.8 | 0.00 | 0.00 | 0.00 | 66 | 1013.2 |
| 20260507202018 | 55 | 313 | 6.1 | 7.8 | 0.00 | 0.00 | 0.00 | 66 | 1013.2 |
| 20260507201930 | 55 | 312 | 6.1 | 7.8 | 0.00 | 0.00 | 0.00 | 66 | 1013.3 |
| 20260507201823 | 55 | 309 | 7.0 | 7.8 | 0.00 | 0.00 | 0.00 | 65 | 1013.3 |
| 20260507201720 | 55 | 309 | 6.1 | 7.8 | 0.00 | 0.00 | 0.00 | 65 | 1013.3 |
| 20260507201613 | 55 | 313 | 6.1 | 7.8 | 0.00 | 0.00 | 0.00 | 65 | 1013.3 |
| 20260507201525 | 55 | 309 | 6.1 | 7.8 | 0.00 | 0.00 | 0.00 | 64 | 1013.3 |
| 20260507201418 | 56 | 306 | 5.2 | 7.8 | 0.00 | 0.00 | 0.00 | 65 | 1013.3 |
| 20260507201329 | 56 | 317 | 4.3 | 7.8 | 0.00 | 0.00 | 0.00 | 64 | 1013.3 |
| 20260507201224 | 56 | 327 | 4.3 | 7.8 | 0.00 | 0.00 | 0.00 | 63 | 1013.4 |
| 20260507201117 | 56 | 321 | 3.5 | 7.8 | 0.00 | 0.00 | 0.00 | 63 | 1013.3 |
| 20260507201030 | 56 | 321 | 3.5 | 7.8 | 0.00 | 0.00 | 0.00 | 62 | 1013.3 |
| 20260507200923 | 55 | 319 | 4.3 | 7.8 | 0.00 | 0.00 | 0.00 | 63 | 1013.3 |
| 20260507200816 | 55 | 323 | 4.3 | 7.8 | 0.00 | 0.00 | 0.00 | 62 | 1013.3 |
| 20260507200733 | 55 | 320 | 5.2 | 7.8 | 0.00 | 0.00 | 0.00 | 65 | 1013.3 |
| 20260507200623 | 55 | 331 | 5.2 | 7.8 | 0.00 | 0.00 | 0.00 | 65 | 1013.3 |
| 20260507200515 | 55 | 307 | 4.3 | 7.8 | 0.00 | 0.00 | 0.00 | 65 | 1013.3 |
| 20260507200426 | 55 | 309 | 5.2 | 7.8 | 0.00 | 0.00 | 0.00 | 65 | 1013.3 |
| 20260507200320 | 55 | 315 | 5.2 | 7.8 | 0.00 | 0.00 | 0.00 | 63 | 1013.3 |
| 20260507200212 | 55 | 306 | 4.3 | 7.8 | 0.00 | 0.00 | 0.00 | 62 | 1013.3 |
| 20260507200149 | 55 | 315 | 4.3 | 7.8 | 0.00 | 0.00 | 0.00 | 62 | 1013.3 |
| 20260507200021 | 55 | 309 | 5.2 | 7.8 | 0.00 | 0.00 | 0.00 | 62 | 1013.3 |
| 20260507195913 | 56 | 303 | 6.1 | 7.8 | 0.00 | 0.00 | 0.00 | 59 | 1013.4 |
| 20260507195825 | 56 | 302 | 6.1 | 7.8 | 0.00 | 0.00 | 0.00 | 57 | 1013.4 |
| 20260507195718 | 56 | 301 | 6.1 | 7.8 | 0.00 | 0.00 | 0.00 | 56 | 1013.3 |
| 20260507195613 | 56 | 297 | 5.2 | 7.0 | 0.00 | 0.00 | 0.00 | 57 | 1013.3 |
| 20260507195525 | 56 | 296 | 5.2 | 7.0 | 0.00 | 0.00 | 0.00 | 58 | 1013.3 |
| 20260507195418 | 56 | 303 | 6.1 | 7.0 | 0.00 | 0.00 | 0.00 | 60 | 1013.3 |
| 20260507195329 | 56 | 305 | 6.1 | 7.0 | 0.00 | 0.00 | 0.00 | 60 | 1013.3 |
| 20260507195222 | 56 | 301 | 6.1 | 7.0 | 0.00 | 0.00 | 0.00 | 60 | 1013.3 |
| 20260507195112 | 56 | 300 | 6.1 | 7.0 | 0.00 | 0.00 | 0.00 | 60 | 1013.3 |
| 20260507195028 | 56 | 300 | 6.1 | 7.0 | 0.00 | 0.00 | 0.00 | 62 | 1013.3 |
| 20260507194921 | 55 | 309 | 6.1 | 7.0 | 0.00 | 0.00 | 0.00 | 61 | 1013.3 |
| 20260507194813 | 55 | 309 | 6.1 | 7.0 | 0.00 | 0.00 | 0.00 | 62 | 1013.3 |
| 20260507194746 | 55 | 304 | 6.1 | 7.0 | 0.00 | 0.00 | 0.00 | 61 | 1013.3 |
| 20260507194618 | 55 | 315 | 5.2 | 7.0 | 0.00 | 0.00 | 0.00 | 61 | 1013.4 |
| 20260507194513 | 55 | 307 | 5.2 | 7.0 | 0.00 | 0.00 | 0.00 | 61 | 1013.4 |
| 20260507194447 | 55 | 303 | 4.3 | 7.0 | 0.00 | 0.00 | 0.00 | 62 | 1013.4 |
| 20260507194319 | 55 | 298 | 4.3 | 6.1 | 0.00 | 0.00 | 0.00 | 62 | 1013.4 |
| 20260507194231 | 56 | 298 | 4.3 | 6.1 | 0.00 | 0.00 | 0.00 | 62 | 1013.4 |
| 20260507194125 | 56 | 297 | 3.5 | 6.1 | 0.00 | 0.00 | 0.00 | 61 | 1013.3 |
| 20260507194016 | 56 | 296 | 2.6 | 6.1 | 0.00 | 0.00 | 0.00 | 61 | 1013.4 |
| 20260507193929 | 56 | 294 | 1.7 | 4.3 | 0.00 | 0.00 | 0.00 | 61 | 1013.4 |
| 20260507193822 | 56 | 294 | 1.7 | 4.3 | 0.00 | 0.00 | 0.00 | 61 | 1013.4 |
| 20260507193712 | 56 | 297 | 2.6 | 4.3 | 0.00 | 0.00 | 0.00 | 60 | 1013.3 |
| 20260507193625 | 56 | 297 | 3.5 | 4.3 | 0.00 | 0.00 | 0.00 | 60 | 1013.3 |
| 20260507193537 | 57 | 297 | 3.5 | 4.3 | 0.00 | 0.00 | 0.00 | 59 | 1013.3 |
| 20260507193413 | 57 | 297 | 3.5 | 4.3 | 0.00 | 0.00 | 0.00 | 59 | 1013.3 |
| 20260507193326 | 57 | 297 | 2.6 | 4.3 | 0.00 | 0.00 | 0.00 | 60 | 1013.3 |
| 20260507193218 | 57 | 295 | 1.7 | 4.3 | 0.00 | 0.00 | 0.00 | 60 | 1013.2 |
| 20260507193130 | 57 | 295 | 1.7 | 5.2 | 0.00 | 0.00 | 0.00 | 60 | 1013.2 |
| 20260507193042 | 56 | 295 | 2.6 | 5.2 | 0.00 | 0.00 | 0.00 | 61 | 1013.2 |
| 20260507192918 | 56 | 294 | 3.5 | 5.2 | 0.00 | 0.00 | 0.00 | 61 | 1013.2 |
| 20260507192830 | 56 | 296 | 3.5 | 5.2 | 0.00 | 0.00 | 0.00 | 61 | 1013.2 |
| 20260507192721 | 56 | 298 | 3.5 | 5.2 | 0.00 | 0.00 | 0.00 | 61 | 1013.2 |
| 20260507192613 | 56 | 299 | 3.5 | 7.0 | 0.00 | 0.00 | 0.00 | 61 | 1013.2 |
| 20260507192526 | 56 | 299 | 3.5 | 7.0 | 0.00 | 0.00 | 0.00 | 61 | 1013.2 |
| 20260507192423 | 55 | 299 | 3.5 | 7.0 | 0.00 | 0.00 | 0.00 | 61 | 1013.2 |
| 20260507192334 | 55 | 299 | 3.5 | 7.0 | 0.00 | 0.00 | 0.00 | 63 | 1013.2 |
| 20260507192226 | 55 | 299 | 4.3 | 7.0 | 0.00 | 0.00 | 0.00 | 62 | 1013.2 |
| 20260507192139 | 55 | 299 | 4.3 | 7.0 | 0.00 | 0.00 | 0.00 | 63 | 1013.2 |
| 20260507192051 | 55 | 299 | 5.2 | 7.0 | 0.00 | 0.00 | 0.00 | 63 | 1013.2 |
| 20260507191921 | 55 | 297 | 4.3 | 7.0 | 0.00 | 0.00 | 0.00 | 63 | 1013.2 |
| 20260507191833 | 55 | 298 | 5.2 | 7.0 | 0.00 | 0.00 | 0.00 | 62 | 1013.2 |
| 20260507191748 | 55 | 307 | 6.1 | 7.0 | 0.00 | 0.00 | 0.00 | 61 | 1013.2 |
| 20260507191619 | 55 | 304 | 6.1 | 7.0 | 0.00 | 0.00 | 0.00 | 60 | 1013.1 |
| 20260507191531 | 55 | 306 | 6.1 | 7.0 | 0.00 | 0.00 | 0.00 | 61 | 1013.1 |
| 20260507191422 | 55 | 304 | 6.1 | 7.0 | 0.00 | 0.00 | 0.00 | 61 | 1013.1 |
| 20260507191315 | 56 | 306 | 6.1 | 7.0 | 0.00 | 0.00 | 0.00 | 62 | 1013.1 |
| 20260507191227 | 56 | 310 | 5.2 | 7.0 | 0.00 | 0.00 | 0.00 | 61 | 1013.1 |
| 20260507191124 | 56 | 307 | 3.5 | 7.0 | 0.00 | 0.00 | 0.00 | 61 | 1013.1 |
| 20260507191015 | 56 | 307 | 3.5 | 7.0 | 0.00 | 0.00 | 0.00 | 62 | 1013.1 |
| 20260507190928 | 56 | 323 | 3.5 | 7.0 | 0.00 | 0.00 | 0.00 | 62 | 1013.1 |
| 20260507190820 | 56 | 331 | 5.2 | 7.0 | 0.00 | 0.00 | 0.00 | 63 | 1013.1 |
| 20260507190715 | 56 | 309 | 5.2 | 7.0 | 0.00 | 0.00 | 0.00 | 62 | 1013.0 |
| 20260507190647 | 56 | 312 | 5.2 | 7.0 | 0.00 | 0.00 | 0.00 | 62 | 1013.0 |
| 20260507190518 | 57 | 300 | 4.3 | 6.1 | 0.00 | 0.00 | 0.00 | 62 | 1013.0 |
| 20260507190429 | 57 | 296 | 3.5 | 6.1 | 0.00 | 0.00 | 0.00 | 60 | 1012.9 |
| 20260507190342 | 57 | 291 | 2.6 | 6.1 | 0.00 | 0.00 | 0.00 | 60 | 1012.9 |
| 20260507190213 | 57 | 284 | 1.7 | 5.2 | 0.00 | 0.00 | 0.00 | 60 | 1012.9 |
| 20260507190145 | 57 | 284 | 1.7 | 3.5 | 0.00 | 0.00 | 0.00 | 61 | 1012.9 |
| 20260507190021 | 57 | 284 | 1.7 | 3.5 | 0.00 | 0.00 | 0.00 | 60 | 1012.9 |
| 20260507185912 | 57 | 284 | 1.7 | 3.5 | 0.00 | 0.00 | 0.00 | 60 | 1012.9 |
| 20260507185825 | 57 | 284 | 2.6 | 4.3 | 0.00 | 0.00 | 0.00 | 60 | 1012.9 |
| 20260507185737 | 57 | 284 | 1.7 | 4.3 | 0.00 | 0.00 | 0.00 | 59 | 1012.9 |
| 20260507185648 | 57 | 284 | 1.7 | 4.3 | 0.00 | 0.00 | 0.00 | 59 | 1012.9 |
| 20260507185539 | 57 | 284 | 0.9 | 4.3 | 0.00 | 0.00 | 0.00 | 59 | 1012.9 |
| 20260507185414 | 57 | 284 | 0.9 | 4.3 | 0.00 | 0.00 | 0.00 | 58 | 1012.9 |
| 20260507185326 | 57 | 284 | 0.9 | 4.3 | 0.00 | 0.00 | 0.00 | 56 | 1012.9 |
| 20260507185218 | 58 | 284 | 1.7 | 4.3 | 0.00 | 0.00 | 0.00 | 56 | 1012.9 |
| 20260507185131 | 58 | 284 | 1.7 | 4.3 | 0.00 | 0.00 | 0.00 | 56 | 1012.9 |
| 20260507185023 | 58 | 284 | 2.6 | 6.1 | 0.00 | 0.00 | 0.00 | 56 | 1012.8 |
| 20260507184915 | 58 | 284 | 2.6 | 6.1 | 0.00 | 0.00 | 0.00 | 56 | 1012.9 |
| 20260507184831 | 58 | 284 | 2.6 | 6.1 | 0.00 | 0.00 | 0.00 | 57 | 1012.9 |
| 20260507184723 | 58 | 279 | 2.6 | 6.1 | 0.00 | 0.00 | 0.00 | 56 | 1012.8 |
| 20260507184613 | 58 | 279 | 3.5 | 7.0 | 0.00 | 0.00 | 0.00 | 56 | 1012.9 |
| 20260507184525 | 58 | 279 | 3.5 | 7.0 | 0.00 | 0.00 | 0.00 | 57 | 1012.9 |
| 20260507184438 | 58 | 279 | 3.5 | 7.0 | 0.00 | 0.00 | 0.00 | 57 | 1012.8 |
| 20260507184312 | 58 | 278 | 3.5 | 7.0 | 0.00 | 0.00 | 0.00 | 58 | 1012.9 |
| 20260507184225 | 58 | 278 | 4.3 | 7.0 | 0.00 | 0.00 | 0.00 | 59 | 1012.9 |
| 20260507184117 | 57 | 278 | 4.3 | 7.0 | 0.00 | 0.00 | 0.00 | 61 | 1012.8 |
| 20260507184030 | 57 | 287 | 5.2 | 7.0 | 0.00 | 0.00 | 0.00 | 62 | 1012.8 |
| 20260507183941 | 57 | 294 | 5.2 | 7.0 | 0.00 | 0.00 | 0.00 | 63 | 1012.8 |
| 20260507183813 | 57 | 283 | 5.2 | 7.0 | 0.00 | 0.00 | 0.00 | 64 | 1012.8 |
| 20260507183730 | 57 | 285 | 6.1 | 7.0 | 0.00 | 0.00 | 0.00 | 65 | 1012.8 |
| 20260507183622 | 58 | 287 | 6.1 | 7.0 | 0.00 | 0.00 | 0.00 | 65 | 1012.9 |
| 20260507183513 | 58 | 286 | 5.2 | 6.1 | 0.00 | 0.00 | 0.00 | 65 | 1012.8 |
| 20260507183426 | 58 | 286 | 5.2 | 6.1 | 0.00 | 0.00 | 0.00 | 64 | 1012.8 |
| 20260507183318 | 58 | 283 | 5.2 | 6.1 | 0.00 | 0.00 | 0.00 | 63 | 1012.8 |
| 20260507183212 | 58 | 283 | 5.2 | 6.1 | 0.00 | 0.00 | 0.00 | 63 | 1012.8 |
| 20260507183146 | 58 | 282 | 5.2 | 7.0 | 0.00 | 0.00 | 0.00 | 63 | 1012.8 |
| 20260507183016 | 59 | 284 | 5.2 | 7.0 | 0.00 | 0.00 | 0.00 | 63 | 1012.7 |
| 20260507182928 | 59 | 284 | 5.2 | 7.0 | 0.00 | 0.00 | 0.00 | 62 | 1012.7 |
| 20260507182819 | 59 | 284 | 4.3 | 7.0 | 0.00 | 0.00 | 0.00 | 62 | 1012.7 |
| 20260507182714 | 59 | 277 | 4.3 | 7.0 | 0.00 | 0.00 | 0.00 | 61 | 1012.8 |
| 20260507182648 | 59 | 276 | 3.5 | 7.0 | 0.00 | 0.00 | 0.00 | 61 | 1012.8 |
| 20260507182538 | 59 | 274 | 3.5 | 7.0 | 0.00 | 0.00 | 0.00 | 61 | 1012.8 |
| 20260507182429 | 59 | 275 | 3.5 | 7.0 | 0.00 | 0.00 | 0.00 | 61 | 1012.8 |
| 20260507182319 | 59 | 275 | 4.3 | 7.8 | 0.00 | 0.00 | 0.00 | 61 | 1012.8 |
| 20260507182231 | 59 | 275 | 4.3 | 7.8 | 0.00 | 0.00 | 0.00 | 61 | 1012.8 |
| 20260507182121 | 59 | 268 | 4.3 | 7.8 | 0.00 | 0.00 | 0.00 | 61 | 1012.8 |
| 20260507182038 | 59 | 269 | 4.3 | 7.8 | 0.00 | 0.00 | 0.00 | 61 | 1012.9 |
| 20260507181929 | 59 | 263 | 4.3 | 7.8 | 0.00 | 0.00 | 0.00 | 62 | 1012.9 |
| 20260507181821 | 59 | 265 | 4.3 | 7.8 | 0.00 | 0.00 | 0.00 | 62 | 1012.9 |
| 20260507181731 | 59 | 265 | 5.2 | 7.8 | 0.00 | 0.00 | 0.00 | 62 | 1012.8 |
| 20260507181622 | 59 | 279 | 4.3 | 8.7 | 0.00 | 0.00 | 0.00 | 62 | 1012.8 |
| 20260507181515 | 59 | 266 | 5.2 | 8.7 | 0.00 | 0.00 | 0.00 | 62 | 1012.8 |
| 20260507181431 | 59 | 269 | 5.2 | 8.7 | 0.00 | 0.00 | 0.00 | 62 | 1012.8 |
| 20260507181322 | 59 | 279 | 5.2 | 8.7 | 0.00 | 0.00 | 0.00 | 63 | 1012.8 |
| 20260507181215 | 59 | 269 | 5.2 | 8.7 | 0.00 | 0.00 | 0.00 | 63 | 1012.8 |
| 20260507181127 | 59 | 271 | 5.2 | 8.7 | 0.00 | 0.00 | 0.00 | 63 | 1012.8 |
| 20260507181039 | 59 | 275 | 5.2 | 8.7 | 0.00 | 0.00 | 0.00 | 63 | 1012.8 |
| 20260507180933 | 59 | 265 | 5.2 | 8.7 | 0.00 | 0.00 | 0.00 | 63 | 1012.7 |
| 20260507180820 | 59 | 269 | 6.1 | 8.7 | 0.00 | 0.00 | 0.00 | 63 | 1012.8 |
| 20260507180730 | 59 | 266 | 6.1 | 8.7 | 0.00 | 0.00 | 0.00 | 63 | 1012.7 |
| 20260507180623 | 59 | 267 | 5.2 | 7.0 | 0.00 | 0.00 | 0.00 | 64 | 1012.8 |
| 20260507180513 | 59 | 265 | 5.2 | 7.0 | 0.00 | 0.00 | 0.00 | 65 | 1012.8 |
| 20260507180446 | 59 | 260 | 4.3 | 7.0 | 0.00 | 0.00 | 0.00 | 65 | 1012.8 |
| 20260507180314 | 59 | 254 | 5.2 | 7.8 | 0.00 | 0.00 | 0.00 | 65 | 1012.8 |
| 20260507180226 | 59 | 255 | 4.3 | 7.8 | 0.00 | 0.00 | 0.00 | 64 | 1012.8 |
| 20260507180114 | 59 | 257 | 3.5 | 8.7 | 0.00 | 0.00 | 0.00 | 67 | 1012.8 |
| 20260507180027 | 59 | 271 | 2.6 | 8.7 | 0.00 | 0.00 | 0.00 | 65 | 1012.8 |
| 20260507175918 | 59 | 279 | 3.5 | 8.7 | 0.00 | 0.00 | 0.00 | 64 | 1012.7 |
| 20260507175829 | 59 | 279 | 4.3 | 8.7 | 0.00 | 0.00 | 0.00 | 64 | 1012.7 |
| 20260507175719 | 59 | 271 | 4.3 | 8.7 | 0.00 | 0.00 | 0.00 | 64 | 1012.7 |
| 20260507175616 | 59 | 271 | 4.3 | 8.7 | 0.00 | 0.00 | 0.00 | 64 | 1012.7 |
| 20260507175549 | 60 | 273 | 4.3 | 8.7 | 0.00 | 0.00 | 0.00 | 64 | 1012.7 |
| 20260507175417 | 60 | 273 | 5.2 | 8.7 | 0.00 | 0.00 | 0.00 | 64 | 1012.6 |
| 20260507175326 | 59 | 275 | 6.1 | 8.7 | 0.00 | 0.00 | 0.00 | 65 | 1012.6 |
| 20260507175217 | 59 | 260 | 6.1 | 8.7 | 0.00 | 0.00 | 0.00 | 65 | 1012.6 |
| 20260507175127 | 59 | 272 | 6.1 | 8.7 | 0.00 | 0.00 | 0.00 | 65 | 1012.6 |
| 20260507175023 | 59 | 275 | 5.2 | 8.7 | 0.00 | 0.00 | 0.00 | 66 | 1012.6 |
| 20260507174913 | 59 | 273 | 5.2 | 8.7 | 0.00 | 0.00 | 0.00 | 66 | 1012.6 |
| 20260507174824 | 59 | 266 | 4.3 | 8.7 | 0.00 | 0.00 | 0.00 | 67 | 1012.6 |
| 20260507174736 | 59 | 279 | 4.3 | 8.7 | 0.00 | 0.00 | 0.00 | 67 | 1012.5 |
| 20260507174626 | 59 | 268 | 4.3 | 8.7 | 0.00 | 0.00 | 0.00 | 68 | 1012.5 |
| 20260507174539 | 60 | 261 | 5.2 | 10.4 | 0.00 | 0.00 | 0.00 | 67 | 1012.5 |
| 20260507174413 | 60 | 262 | 6.1 | 10.4 | 0.00 | 0.00 | 0.00 | 67 | 1012.6 |
| 20260507174324 | 60 | 260 | 6.1 | 10.4 | 0.00 | 0.00 | 0.00 | 67 | 1012.6 |
| 20260507174216 | 60 | 266 | 6.1 | 10.4 | 0.00 | 0.00 | 0.00 | 67 | 1012.6 |
| 20260507174127 | 60 | 290 | 5.2 | 10.4 | 0.00 | 0.00 | 0.00 | 67 | 1012.6 |
| 20260507174020 | 60 | 259 | 4.3 | 10.4 | 0.00 | 0.00 | 0.00 | 67 | 1012.6 |
| 20260507173914 | 60 | 271 | 5.2 | 10.4 | 0.00 | 0.00 | 0.00 | 67 | 1012.5 |
| 20260507173826 | 60 | 273 | 5.2 | 10.4 | 0.00 | 0.00 | 0.00 | 67 | 1012.5 |
| 20260507173718 | 60 | 273 | 7.0 | 10.4 | 0.00 | 0.00 | 0.00 | 67 | 1012.6 |
| 20260507173630 | 60 | 267 | 7.0 | 10.4 | 0.00 | 0.00 | 0.00 | 67 | 1012.6 |
| 20260507173542 | 60 | 266 | 6.1 | 10.4 | 0.00 | 0.00 | 0.00 | 67 | 1012.6 |
| 20260507173417 | 60 | 271 | 6.1 | 10.4 | 0.00 | 0.00 | 0.00 | 66 | 1012.6 |
| 20260507173327 | 60 | 270 | 6.1 | 10.4 | 0.00 | 0.00 | 0.00 | 66 | 1012.6 |
| 20260507173218 | 60 | 254 | 7.0 | 10.4 | 0.00 | 0.00 | 0.00 | 66 | 1012.5 |
| 20260507173130 | 60 | 275 | 7.0 | 10.4 | 0.00 | 0.00 | 0.00 | 66 | 1012.4 |
| 20260507173022 | 60 | 270 | 7.0 | 10.4 | 0.00 | 0.00 | 0.00 | 66 | 1012.4 |
| 20260507172953 | 60 | 267 | 7.0 | 10.4 | 0.00 | 0.00 | 0.00 | 67 | 1012.4 |
| 20260507172827 | 60 | 257 | 6.1 | 9.6 | 0.00 | 0.00 | 0.00 | 67 | 1012.4 |
| 20260507172719 | 60 | 273 | 6.1 | 9.6 | 0.00 | 0.00 | 0.00 | 67 | 1012.4 |
| 20260507172623 | 60 | 259 | 6.1 | 9.6 | 0.00 | 0.00 | 0.00 | 66 | 1012.3 |
| 20260507172516 | 60 | 265 | 6.1 | 10.4 | 0.00 | 0.00 | 0.00 | 66 | 1012.3 |
| 20260507172446 | 60 | 243 | 5.2 | 10.4 | 0.00 | 0.00 | 0.00 | 67 | 1012.3 |
| 20260507172315 | 60 | 257 | 4.3 | 10.4 | 0.00 | 0.00 | 0.00 | 66 | 1012.2 |
| 20260507172231 | 60 | 267 | 5.2 | 10.4 | 0.00 | 0.00 | 0.00 | 66 | 1012.2 |
| 20260507172142 | 60 | 271 | 4.3 | 10.4 | 0.00 | 0.00 | 0.00 | 66 | 1012.3 |
| 20260507172012 | 60 | 263 | 5.2 | 10.4 | 0.00 | 0.00 | 0.00 | 66 | 1012.3 |
| 20260507171925 | 60 | 259 | 6.1 | 10.4 | 0.00 | 0.00 | 0.00 | 66 | 1012.3 |
| 20260507171817 | 60 | 260 | 7.0 | 10.4 | 0.00 | 0.00 | 0.00 | 66 | 1012.3 |
| 20260507171749 | 60 | 261 | 6.1 | 10.4 | 0.00 | 0.00 | 0.00 | 67 | 1012.3 |
| 20260507171623 | 60 | 259 | 7.0 | 10.4 | 0.00 | 0.00 | 0.00 | 67 | 1012.3 |
| 20260507171514 | 60 | 273 | 5.2 | 9.6 | 0.00 | 0.00 | 0.00 | 67 | 1012.3 |
| 20260507171423 | 60 | 279 | 4.3 | 9.6 | 0.00 | 0.00 | 0.00 | 67 | 1012.3 |
| 20260507171316 | 60 | 262 | 4.3 | 9.6 | 0.00 | 0.00 | 0.00 | 67 | 1012.4 |
| 20260507171247 | 60 | 251 | 4.3 | 9.6 | 0.00 | 0.00 | 0.00 | 67 | 1012.4 |
| 20260507171115 | 60 | 267 | 4.3 | 9.6 | 0.00 | 0.00 | 0.00 | 68 | 1012.3 |
| 20260507171026 | 60 | 259 | 5.2 | 9.6 | 0.00 | 0.00 | 0.00 | 66 | 1012.3 |
| 20260507170922 | 60 | 302 | 6.1 | 9.6 | 0.00 | 0.00 | 0.00 | 66 | 1012.4 |
| 20260507170813 | 60 | 261 | 6.1 | 9.6 | 0.00 | 0.00 | 0.00 | 66 | 1012.4 |
| 20260507170723 | 60 | 236 | 6.1 | 9.6 | 0.00 | 0.00 | 0.00 | 66 | 1012.4 |
| 20260507170614 | 60 | 271 | 4.3 | 9.6 | 0.00 | 0.00 | 0.00 | 67 | 1012.4 |
| 20260507170525 | 60 | 248 | 4.3 | 7.8 | 0.00 | 0.00 | 0.00 | 66 | 1012.4 |
| 20260507170421 | 60 | 207 | 5.2 | 7.8 | 0.00 | 0.00 | 0.00 | 66 | 1012.4 |
| 20260507170331 | 60 | 225 | 5.2 | 8.7 | 0.00 | 0.00 | 0.00 | 67 | 1012.4 |
| 20260507170222 | 60 | 281 | 4.3 | 8.7 | 0.00 | 0.00 | 0.00 | 68 | 1012.4 |
| 20260507170113 | 60 | 222 | 4.3 | 9.6 | 0.00 | 0.00 | 0.00 | 67 | 1012.4 |
| 20260507170025 | 61 | 257 | 4.3 | 9.6 | 0.00 | 0.00 | 0.00 | 67 | 1012.4 |
| 20260507165917 | 61 | 244 | 4.3 | 9.6 | 0.00 | 0.00 | 0.00 | 67 | 1012.4 |
| 20260507165813 | 61 | 234 | 3.5 | 9.6 | 0.00 | 0.00 | 0.00 | 67 | 1012.4 |
| 20260507165723 | 61 | 267 | 3.5 | 9.6 | 0.00 | 0.00 | 0.00 | 67 | 1012.4 |
| 20260507165615 | 61 | 248 | 5.2 | 9.6 | 0.00 | 0.00 | 0.00 | 67 | 1012.4 |
| 20260507165527 | 61 | 263 | 6.1 | 9.6 | 0.00 | 0.00 | 0.00 | 67 | 1012.4 |
| 20260507165419 | 61 | 215 | 6.1 | 9.6 | 0.00 | 0.00 | 0.00 | 66 | 1012.4 |
| 20260507165315 | 61 | 225 | 6.1 | 9.6 | 0.00 | 0.00 | 0.00 | 67 | 1012.4 |
| 20260507165227 | 61 | 187 | 6.1 | 9.6 | 0.00 | 0.00 | 0.00 | 66 | 1012.4 |
| 20260507165118 | 61 | 219 | 4.3 | 7.0 | 0.00 | 0.00 | 0.00 | 66 | 1012.4 |
| 20260507165031 | 61 | 190 | 3.5 | 7.0 | 0.00 | 0.00 | 0.00 | 68 | 1012.4 |
| 20260507164923 | 61 | 234 | 2.6 | 6.1 | 0.00 | 0.00 | 0.00 | 68 | 1012.4 |
| 20260507164819 | 61 | 207 | 1.7 | 8.7 | 0.00 | 0.00 | 0.00 | 68 | 1012.4 |
| 20260507164731 | 61 | 206 | 0.9 | 9.6 | 0.00 | 0.00 | 0.00 | 67 | 1012.4 |
| 20260507164624 | 62 | 205 | 1.7 | 9.6 | 0.00 | 0.00 | 0.00 | 67 | 1012.4 |
| 20260507164516 | 62 | 206 | 2.6 | 9.6 | 0.00 | 0.00 | 0.00 | 66 | 1012.4 |
| 20260507164427 | 62 | 206 | 2.6 | 9.6 | 0.00 | 0.00 | 0.00 | 65 | 1012.4 |
| 20260507164341 | 62 | 196 | 3.5 | 9.6 | 0.00 | 0.00 | 0.00 | 64 | 1012.4 |
| 20260507164232 | 62 | 263 | 4.3 | 9.6 | 0.00 | 0.00 | 0.00 | 64 | 1012.4 |
| 20260507164123 | 62 | 275 | 4.3 | 9.6 | 0.00 | 0.00 | 0.00 | 64 | 1012.4 |
| 20260507164015 | 62 | 271 | 5.2 | 13.0 | 0.00 | 0.00 | 0.00 | 64 | 1012.4 |
| 20260507163927 | 62 | 277 | 7.0 | 13.0 | 0.00 | 0.00 | 0.00 | 64 | 1012.4 |
| 20260507163822 | 62 | 238 | 7.0 | 13.0 | 0.00 | 0.00 | 0.00 | 64 | 1012.4 |
| 20260507163734 | 62 | 218 | 6.1 | 13.0 | 0.00 | 0.00 | 0.00 | 63 | 1012.4 |
| 20260507163624 | 62 | 210 | 6.1 | 13.0 | 0.00 | 0.00 | 0.00 | 63 | 1012.4 |
| 20260507163517 | 62 | 231 | 5.2 | 13.0 | 0.00 | 0.00 | 0.00 | 63 | 1012.4 |
| 20260507163429 | 62 | 244 | 4.3 | 13.0 | 0.00 | 0.00 | 0.00 | 63 | 1012.4 |
| 20260507163342 | 62 | 254 | 5.2 | 13.0 | 0.00 | 0.00 | 0.00 | 63 | 1012.4 |
| 20260507163216 | 62 | 213 | 6.1 | 13.0 | 0.00 | 0.00 | 0.00 | 63 | 1012.4 |
| 20260507163148 | 63 | 240 | 6.1 | 13.0 | 0.00 | 0.00 | 0.00 | 62 | 1012.4 |
| 20260507163018 | 63 | 234 | 5.2 | 12.2 | 0.00 | 0.00 | 0.00 | 62 | 1012.5 |
| 20260507162950 | 63 | 259 | 5.2 | 12.2 | 0.00 | 0.00 | 0.00 | 62 | 1012.4 |
| 20260507162821 | 63 | 229 | 5.2 | 12.2 | 0.00 | 0.00 | 0.00 | 62 | 1012.4 |
| 20260507162713 | 63 | 184 | 5.2 | 12.2 | 0.00 | 0.00 | 0.00 | 61 | 1012.4 |
| 20260507162645 | 63 | 165 | 6.1 | 12.2 | 0.00 | 0.00 | 0.00 | 61 | 1012.4 |
| 20260507162520 | 63 | 232 | 5.2 | 12.2 | 0.00 | 0.00 | 0.00 | 62 | 1012.4 |
| 20260507162452 | 63 | 227 | 5.2 | 8.7 | 0.00 | 0.00 | 0.00 | 62 | 1012.4 |
| 20260507162344 | 63 | 254 | 6.1 | 8.7 | 0.00 | 0.00 | 0.00 | 62 | 1012.4 |
| 20260507162232 | 63 | 229 | 6.1 | 9.6 | 0.00 | 0.00 | 0.00 | 61 | 1012.3 |
| 20260507162125 | 63 | 188 | 5.2 | 8.7 | 0.00 | 0.00 | 0.00 | 61 | 1012.3 |
| 20260507162014 | 63 | 216 | 4.3 | 9.6 | 0.00 | 0.00 | 0.00 | 61 | 1012.3 |
| 20260507161930 | 63 | 191 | 5.2 | 9.6 | 0.00 | 0.00 | 0.00 | 61 | 1012.3 |
| 20260507161842 | 63 | 248 | 5.2 | 9.6 | 0.00 | 0.00 | 0.00 | 61 | 1012.4 |
| 20260507161712 | 63 | 223 | 4.3 | 9.6 | 0.00 | 0.00 | 0.00 | 61 | 1012.4 |
| 20260507161625 | 63 | 187 | 3.5 | 9.6 | 0.00 | 0.00 | 0.00 | 61 | 1012.4 |
| 20260507161516 | 63 | 187 | 4.3 | 13.0 | 0.00 | 0.00 | 0.00 | 61 | 1012.3 |
| 20260507161448 | 63 | 220 | 5.2 | 13.0 | 0.00 | 0.00 | 0.00 | 61 | 1012.3 |
| 20260507161343 | 63 | 219 | 5.2 | 13.0 | 0.00 | 0.00 | 0.00 | 61 | 1012.3 |
| 20260507161251 | 63 | 220 | 6.1 | 13.0 | 0.00 | 0.00 | 0.00 | 61 | 1012.4 |
| 20260507161120 | 63 | 184 | 6.1 | 13.0 | 0.00 | 0.00 | 0.00 | 61 | 1012.3 |
| 20260507161052 | 63 | 190 | 5.2 | 13.0 | 0.00 | 0.00 | 0.00 | 60 | 1012.3 |
| 20260507160942 | 63 | 200 | 4.3 | 13.0 | 0.00 | 0.00 | 0.00 | 61 | 1012.3 |
| 20260507160852 | 63 | 189 | 4.3 | 13.0 | 0.00 | 0.00 | 0.00 | 61 | 1012.3 |
| 20260507160722 | 63 | 208 | 6.1 | 13.0 | 0.00 | 0.00 | 0.00 | 60 | 1012.3 |
| 20260507160618 | 63 | 239 | 7.8 | 12.2 | 0.00 | 0.00 | 0.00 | 60 | 1012.2 |
| 20260507160529 | 63 | 186 | 7.0 | 12.2 | 0.00 | 0.00 | 0.00 | 60 | 1012.2 |
| 20260507160422 | 63 | 188 | 7.8 | 12.2 | 0.00 | 0.00 | 0.00 | 60 | 1012.2 |
| 20260507160353 | 63 | 180 | 7.0 | 12.2 | 0.00 | 0.00 | 0.00 | 60 | 1012.2 |
| 20260507160223 | 63 | 205 | 7.0 | 12.2 | 0.00 | 0.00 | 0.00 | 60 | 1012.3 |
| 20260507160120 | 63 | 193 | 7.0 | 14.8 | 0.00 | 0.00 | 0.00 | 59 | 1012.3 |
| 20260507160030 | 63 | 186 | 7.0 | 14.8 | 0.00 | 0.00 | 0.00 | 59 | 1012.3 |
| 20260507155922 | 63 | 225 | 6.1 | 14.8 | 0.00 | 0.00 | 0.00 | 59 | 1012.3 |
| 20260507155813 | 63 | 227 | 6.1 | 14.8 | 0.00 | 0.00 | 0.00 | 59 | 1012.3 |
| 20260507155724 | 63 | 184 | 6.1 | 14.8 | 0.00 | 0.00 | 0.00 | 59 | 1012.3 |
| 20260507155635 | 63 | 196 | 5.2 | 14.8 | 0.00 | 0.00 | 0.00 | 59 | 1012.3 |
| 20260507155531 | 63 | 218 | 5.2 | 14.8 | 0.00 | 0.00 | 0.00 | 59 | 1012.3 |
| 20260507155423 | 63 | 182 | 7.0 | 14.8 | 0.00 | 0.00 | 0.00 | 59 | 1012.3 |
| 20260507155315 | 63 | 203 | 9.6 | 14.8 | 0.00 | 0.00 | 0.00 | 59 | 1012.3 |
| 20260507155226 | 63 | 188 | 9.6 | 14.8 | 0.00 | 0.00 | 0.00 | 58 | 1012.3 |
| 20260507155139 | 63 | 189 | 8.7 | 13.9 | 0.00 | 0.00 | 0.00 | 58 | 1012.2 |
| 20260507155049 | 63 | 187 | 8.7 | 13.9 | 0.00 | 0.00 | 0.00 | 58 | 1012.3 |
| 20260507154944 | 63 | 201 | 7.0 | 13.9 | 0.00 | 0.00 | 0.00 | 58 | 1012.2 |
| 20260507154816 | 63 | 188 | 7.0 | 13.9 | 0.00 | 0.00 | 0.00 | 59 | 1012.2 |
| 20260507154727 | 63 | 219 | 8.7 | 13.9 | 0.00 | 0.00 | 0.00 | 58 | 1012.2 |
| 20260507154617 | 63 | 190 | 9.6 | 13.9 | 0.00 | 0.00 | 0.00 | 58 | 1012.2 |
| 20260507154529 | 63 | 163 | 7.8 | 13.9 | 0.00 | 0.00 | 0.00 | 57 | 1012.2 |
| 20260507154445 | 64 | 196 | 7.0 | 11.3 | 0.00 | 0.00 | 0.00 | 58 | 1012.1 |
| 20260507053616 | 50 | 178 | 1.7 | 6.1 | 0.00 | 0.00 | 0.00 | 93 | 1012.8 |
| 20260507053512 | 50 | 178 | 1.7 | 6.1 | 0.00 | 0.00 | 0.00 | 93 | 1012.7 |
| 20260507053424 | 50 | 178 | 1.7 | 7.0 | 0.00 | 0.00 | 0.00 | 93 | 1012.7 |
| 20260507053316 | 50 | 178 | 2.6 | 7.0 | 0.00 | 0.00 | 0.00 | 93 | 1012.7 |
| 20260507053228 | 50 | 178 | 2.6 | 7.0 | 0.00 | 0.00 | 0.00 | 93 | 1012.7 |
| 20260507053120 | 50 | 178 | 2.6 | 7.0 | 0.00 | 0.00 | 0.00 | 93 | 1012.7 |
| 20260507053032 | 50 | 182 | 2.6 | 7.0 | 0.00 | 0.00 | 0.00 | 93 | 1012.7 |
| 20260507052948 | 50 | 182 | 2.6 | 7.0 | 0.00 | 0.00 | 0.00 | 93 | 1012.7 |
| 20260507052820 | 50 | 182 | 3.5 | 7.0 | 0.00 | 0.00 | 0.00 | 93 | 1012.6 |
| 20260507052752 | 50 | 185 | 3.5 | 7.0 | 0.00 | 0.00 | 0.00 | 93 | 1012.7 |
| 20260507052624 | 50 | 180 | 3.5 | 7.0 | 0.00 | 0.00 | 0.00 | 93 | 1012.6 |
| 20260507052535 | 50 | 180 | 4.3 | 7.0 | 0.00 | 0.00 | 0.00 | 93 | 1012.6 |
| 20260507052445 | 50 | 180 | 4.3 | 7.0 | 0.00 | 0.00 | 0.00 | 93 | 1012.6 |
| 20260507052315 | 50 | 180 | 3.5 | 6.1 | 0.00 | 0.00 | 0.00 | 93 | 1012.7 |
| 20260507052231 | 50 | 180 | 4.3 | 6.1 | 0.00 | 0.00 | 0.00 | 93 | 1012.7 |
| 20260507052123 | 50 | 173 | 4.3 | 6.1 | 0.00 | 0.00 | 0.00 | 93 | 1012.7 |
| 20260507052015 | 50 | 172 | 3.5 | 6.1 | 0.00 | 0.00 | 0.00 | 93 | 1012.6 |
| 20260507051927 | 50 | 184 | 2.6 | 4.3 | 0.00 | 0.00 | 0.00 | 93 | 1012.6 |
| 20260507051819 | 50 | 190 | 2.6 | 6.1 | 0.00 | 0.00 | 0.00 | 93 | 1012.6 |
| 20260507051735 | 50 | 190 | 2.6 | 6.1 | 0.00 | 0.00 | 0.00 | 93 | 1012.6 |
| 20260507051626 | 50 | 190 | 2.6 | 6.1 | 0.00 | 0.00 | 0.00 | 93 | 1012.6 |
| 20260507051519 | 50 | 190 | 0.9 | 6.1 | 0.00 | 0.00 | 0.00 | 93 | 1012.6 |
| 20260507051451 | 50 | 190 | 0.9 | 6.1 | 0.00 | 0.00 | 0.00 | 93 | 1012.6 |
| 20260507051322 | 50 | 191 | 0.9 | 6.1 | 0.00 | 0.00 | 0.00 | 93 | 1012.5 |
| 20260507051214 | 50 | 190 | 0.9 | 8.7 | 0.00 | 0.00 | 0.00 | 93 | 1012.6 |
| 20260507051131 | 50 | 190 | 1.7 | 8.7 | 0.00 | 0.00 | 0.00 | 93 | 1012.6 |
| 20260507051044 | 50 | 190 | 3.5 | 8.7 | 0.00 | 0.00 | 0.00 | 93 | 1012.5 |
| 20260507050915 | 50 | 192 | 3.5 | 8.7 | 0.00 | 0.00 | 0.00 | 93 | 1012.4 |
| 20260507050824 | 50 | 238 | 2.6 | 8.7 | 0.00 | 0.00 | 0.00 | 93 | 1012.4 |
| 20260507050717 | 50 | 192 | 1.7 | 8.7 | 0.00 | 0.00 | 0.00 | 93 | 1012.4 |
| 20260507050628 | 50 | 192 | 1.7 | 8.7 | 0.00 | 0.00 | 0.00 | 93 | 1012.4 |
| 20260507050524 | 50 | 192 | 1.7 | 8.7 | 0.00 | 0.00 | 0.00 | 93 | 1012.4 |
| 20260507050415 | 50 | 221 | 4.3 | 8.7 | 0.00 | 0.00 | 0.00 | 93 | 1012.4 |
| 20260507050348 | 50 | 239 | 5.2 | 8.7 | 0.00 | 0.00 | 0.00 | 93 | 1012.4 |
| 20260507050220 | 50 | 190 | 4.3 | 9.6 | 0.00 | 0.00 | 0.00 | 93 | 1012.4 |
| 20260507050153 | 50 | 109 | 2.6 | 6.1 | 0.00 | 0.00 | 0.00 | 93 | 1012.3 |
| 20260507050022 | 50 | 179 | 2.6 | 6.1 | 0.00 | 0.00 | 0.00 | 93 | 1012.3 |
| 20260507045917 | 50 | 179 | 3.5 | 6.1 | 0.00 | 0.00 | 0.00 | 93 | 1012.3 |
| 20260507045830 | 50 | 184 | 3.5 | 6.1 | 0.00 | 0.00 | 0.00 | 93 | 1012.4 |
| 20260507045722 | 50 | 184 | 3.5 | 6.1 | 0.00 | 0.00 | 0.00 | 93 | 1012.3 |
| 20260507045613 | 50 | 166 | 3.5 | 6.1 | 0.00 | 0.00 | 0.00 | 93 | 1012.3 |
| 20260507045525 | 50 | 158 | 3.5 | 6.1 | 0.00 | 0.00 | 0.00 | 93 | 1012.3 |
| 20260507045421 | 49 | 178 | 3.5 | 7.0 | 0.00 | 0.00 | 0.00 | 93 | 1012.2 |
| 20260507045333 | 49 | 178 | 2.6 | 7.0 | 0.00 | 0.00 | 0.00 | 93 | 1012.2 |
| 20260507045246 | 49 | 121 | 2.6 | 6.1 | 0.00 | 0.00 | 0.00 | 93 | 1012.2 |
| 20260507045115 | 49 | 153 | 1.7 | 6.1 | 0.00 | 0.00 | 0.00 | 93 | 1012.2 |
| 20260507045047 | 49 | 151 | 1.7 | 6.1 | 0.00 | 0.00 | 0.00 | 93 | 1012.2 |
| 20260507044918 | 49 | 142 | 1.7 | 3.5 | 0.00 | 0.00 | 0.00 | 93 | 1012.2 |
| 20260507044851 | 49 | 141 | 1.7 | 5.2 | 0.00 | 0.00 | 0.00 | 93 | 1012.2 |
| 20260507044726 | 49 | 119 | 1.7 | 5.2 | 0.00 | 0.00 | 0.00 | 93 | 1012.2 |
| 20260507044617 | 49 | 117 | 0.9 | 5.2 | 0.00 | 0.00 | 0.00 | 93 | 1012.2 |
| 20260507044529 | 49 | 117 | 0.9 | 5.2 | 0.00 | 0.00 | 0.00 | 93 | 1012.2 |
| 20260507044421 | 49 | 117 | 0.9 | 5.2 | 0.00 | 0.00 | 0.00 | 93 | 1012.2 |
| 20260507044312 | 49 | 117 | 0.9 | 5.2 | 0.00 | 0.00 | 0.00 | 93 | 1012.2 |
| 20260507044228 | 49 | 117 | 0.9 | 5.2 | 0.00 | 0.00 | 0.00 | 93 | 1012.2 |
| 20260507044140 | 49 | 117 | 0.9 | 5.2 | 0.00 | 0.00 | 0.00 | 93 | 1012.2 |
| 20260507044031 | 49 | 117 | 1.7 | 5.2 | 0.00 | 0.00 | 0.00 | 93 | 1012.2 |
| 20260507043922 | 49 | 117 | 2.6 | 5.2 | 0.00 | 0.00 | 0.00 | 93 | 1012.2 |
| 20260507043814 | 49 | 115 | 1.7 | 3.5 | 0.00 | 0.00 | 0.00 | 93 | 1012.2 |
| 20260507043725 | 49 | 121 | 0.9 | 3.5 | 0.00 | 0.00 | 0.00 | 93 | 1012.2 |
| 20260507043636 | 49 | 121 | 0.9 | 6.1 | 0.00 | 0.00 | 0.00 | 93 | 1012.2 |
| 20260507043552 | 49 | 121 | 0.9 | 6.1 | 0.00 | 0.00 | 0.00 | 93 | 1012.2 |
| 20260507043423 | 49 | 121 | 0.9 | 6.1 | 0.00 | 0.00 | 0.00 | 93 | 1012.2 |
| 20260507043315 | 49 | 121 | 1.7 | 6.1 | 0.00 | 0.00 | 0.00 | 93 | 1012.1 |
| 20260507043228 | 49 | 121 | 1.7 | 6.1 | 0.00 | 0.00 | 0.00 | 93 | 1012.1 |
| 20260507043121 | 49 | 121 | 1.7 | 6.1 | 0.00 | 0.00 | 0.00 | 93 | 1012.2 |
| 20260507043036 | 49 | 121 | 0.9 | 6.1 | 0.00 | 0.00 | 0.00 | 93 | 1012.1 |
| 20260507042928 | 49 | 119 | 1.7 | 6.1 | 0.00 | 0.00 | 0.00 | 93 | 1012.1 |
| 20260507042821 | 49 | 119 | 2.6 | 6.1 | 0.00 | 0.00 | 0.00 | 93 | 1012.1 |
| 20260507042713 | 49 | 119 | 3.5 | 6.1 | 0.00 | 0.00 | 0.00 | 93 | 1012.1 |
| 20260507042645 | 49 | 119 | 3.5 | 6.1 | 0.00 | 0.00 | 0.00 | 93 | 1012.1 |
| 20260507042516 | 49 | 119 | 2.6 | 5.2 | 0.00 | 0.00 | 0.00 | 93 | 1012.1 |
| 20260507042433 | 49 | 125 | 1.7 | 7.0 | 0.00 | 0.00 | 0.00 | 93 | 1012.1 |
| 20260507042324 | 49 | 123 | 2.6 | 7.8 | 0.00 | 0.00 | 0.00 | 93 | 1012.1 |
| 20260507042217 | 50 | 123 | 3.5 | 8.7 | 0.00 | 0.00 | 0.00 | 93 | 1012.0 |
| 20260507042128 | 50 | 123 | 2.6 | 8.7 | 0.00 | 0.00 | 0.00 | 93 | 1012.1 |
| 20260507042020 | 50 | 169 | 2.6 | 8.7 | 0.00 | 0.00 | 0.00 | 93 | 1012.1 |
| 20260507041917 | 50 | 169 | 2.6 | 8.7 | 0.00 | 0.00 | 0.00 | 93 | 1012.1 |
| 20260507041829 | 50 | 169 | 2.6 | 8.7 | 0.00 | 0.00 | 0.00 | 93 | 1012.1 |
| 20260507041741 | 50 | 169 | 3.5 | 8.7 | 0.00 | 0.00 | 0.00 | 93 | 1012.1 |
| 20260507041633 | 50 | 171 | 4.3 | 8.7 | 0.00 | 0.00 | 0.00 | 93 | 1012.0 |
| 20260507041524 | 50 | 186 | 5.2 | 8.7 | 0.00 | 0.00 | 0.00 | 93 | 1012.0 |
| 20260507041416 | 50 | 186 | 6.1 | 8.7 | 0.00 | 0.00 | 0.00 | 93 | 1012.0 |
| 20260507041312 | 50 | 188 | 5.2 | 8.7 | 0.00 | 0.00 | 0.00 | 93 | 1012.1 |
| 20260507041224 | 50 | 178 | 4.3 | 6.1 | 0.00 | 0.00 | 0.00 | 93 | 1012.1 |
| 20260507041117 | 50 | 179 | 3.5 | 6.1 | 0.00 | 0.00 | 0.00 | 93 | 1012.0 |
| 20260507041028 | 50 | 179 | 3.5 | 6.1 | 0.00 | 0.00 | 0.00 | 93 | 1012.0 |
| 20260507040923 | 50 | 179 | 2.6 | 6.1 | 0.00 | 0.00 | 0.00 | 93 | 1012.0 |